Observation data for Estelline on 11/16/2019      Previous  Date       Current Mesonet Observations  Soil Data  Daily Summary Page  Observations in Plain Language
KES1 160600Z 16005KT 05/M01 A3018 RMK A01 T00511014  RH  063%=      5-min Rain = 0
KES1 160601Z 16004KT 05/M01 A3018 RMK A01 T00501014  RH  063%=      5-min Rain = 0
KES1 160602Z 16004KT 05/M01 A3018 RMK A01 T00501014  RH  063%=      5-min Rain = 0
KES1 160603Z 16005KT 05/M01 A3018 RMK A01 T00501014  RH  063%=      5-min Rain = 0
KES1 160604Z 16005KT 05/M02 A3018 RMK A01 T00491015  RH  063%=      5-min Rain = 0
KES1 160605Z 16005KT 05/M02 A3018 RMK A01 T00481015  RH  064%=      5-min Rain = 0
KES1 160606Z 16005KT 05/M02 A3018 RMK A01 T00481015  RH  064%=      5-min Rain = 0
KES1 160607Z 16005KT 05/M02 A3018 RMK A01 T00471015  RH  064%=      5-min Rain = 0
KES1 160608Z 16005KT 05/M02 A3018 RMK A01 T00471015  RH  064%=      5-min Rain = 0
KES1 160609Z 16004KT 05/M02 A3018 RMK A01 T00471015  RH  064%=      5-min Rain = 0
KES1 160610Z 16004KT 05/M01 A3018 RMK A01 T00461014  RH  065%=      5-min Rain = 0
KES1 160611Z 17004KT 05/M01 A3018 RMK A01 T00461014  RH  065%=      5-min Rain = 0
KES1 160612Z 17004KT 05/M01 A3018 RMK A01 T00471013  RH  065%=      5-min Rain = 0
KES1 160613Z 18003KT 05/M01 A3018 RMK A01 T00491012  RH  065%=      5-min Rain = 0
KES1 160614Z 19002KT 05/M01 A3018 RMK A01 T00501013  RH  064%=      5-min Rain = 0
KES1 160615Z 19003KT 05/M01 A3018 RMK A01 T00491014  RH  063%=      5-min Rain = 0
KES1 160616Z 18002KT 05/M02 A3018 RMK A01 T00471019  RH  063%=      5-min Rain = 0
KES1 160617Z 18003KT 04/M02 A3018 RMK A01 T00431021  RH  063%=      5-min Rain = 0
KES1 160618Z 17003KT 04/M02 A3018 RMK A01 T00401022  RH  064%=      5-min Rain = 0
KES1 160619Z 17003KT 04/M02 A3018 RMK A01 T00381021  RH  065%=      5-min Rain = 0
KES1 160620Z 17002KT 04/M02 A3018 RMK A01 T00361022  RH  066%=      5-min Rain = 0
KES1 160621Z 17002KT 04/M02 A3018 RMK A01 T00351021  RH  067%=      5-min Rain = 0
KES1 160622Z 17002KT 04/M02 A3018 RMK A01 T00351019  RH  068%=      5-min Rain = 0
KES1 160623Z 17003KT 04/M02 A3018 RMK A01 T00361017  RH  068%=      5-min Rain = 0
KES1 160624Z 17003KT 04/M02 A3018 RMK A01 T00381016  RH  068%=      5-min Rain = 0
KES1 160625Z 17002KT 04/M02 A3018 RMK A01 T00391016  RH  067%=      5-min Rain = 0
KES1 160626Z 17002KT 04/M02 A3018 RMK A01 T00401015  RH  067%=      5-min Rain = 0
KES1 160627Z 16001KT 04/M02 A3018 RMK A01 T00411015  RH  067%=      5-min Rain = 0
KES1 160628Z 17001KT 04/M01 A3018 RMK A01 T00421014  RH  067%=      5-min Rain = 0
KES1 160629Z 17001KT 04/M01 A3018 RMK A01 T00431014  RH  067%=      5-min Rain = 0
KES1 160630Z 17001KT 04/M01 A3018 RMK A01 T00441013  RH  066%=      5-min Rain = 0
KES1 160631Z 17002KT 05/M01 A3018 RMK A01 T00451013  RH  066%=      5-min Rain = 0
KES1 160632Z 17001KT 05/M01 A3018 RMK A01 T00451013  RH  066%=      5-min Rain = 0
KES1 160633Z 17002KT 05/M01 A3018 RMK A01 T00451013  RH  066%=      5-min Rain = 0
KES1 160634Z 17001KT 05/M01 A3018 RMK A01 T00451013  RH  066%=      5-min Rain = 0
KES1 160635Z 17002KT 05/M01 A3018 RMK A01 T00451013  RH  066%=      5-min Rain = 0
KES1 160636Z 16002KT 05/M01 A3018 RMK A01 T00461013  RH  066%=      5-min Rain = 0
KES1 160637Z 16002KT 05/M01 A3018 RMK A01 T00461013  RH  066%=      5-min Rain = 0
KES1 160638Z 17002KT 05/M01 A3018 RMK A01 T00461013  RH  066%=      5-min Rain = 0
KES1 160639Z 17003KT 05/M01 A3018 RMK A01 T00461013  RH  066%=      5-min Rain = 0
KES1 160640Z 16003KT 05/M01 A3018 RMK A01 T00461013  RH  066%=      5-min Rain = 0
KES1 160641Z 17003KT 05/M01 A3018 RMK A01 T00461013  RH  066%=      5-min Rain = 0
KES1 160642Z 17003KT 05/M01 A3018 RMK A01 T00461013  RH  065%=      5-min Rain = 0
KES1 160643Z 17003KT 05/M01 A3018 RMK A01 T00461013  RH  066%=      5-min Rain = 0
KES1 160644Z 17002KT 05/M01 A3018 RMK A01 T00461013  RH  066%=      5-min Rain = 0
KES1 160645Z 17002KT 05/M01 A3017 RMK A01 T00461013  RH  066%=      5-min Rain = 0
KES1 160646Z 17002KT 05/M01 A3017 RMK A01 T00461013  RH  066%=      5-min Rain = 0
KES1 160647Z 17001KT 05/M01 A3017 RMK A01 T00451013  RH  066%=      5-min Rain = 0
KES1 160648Z 17001KT 05/M01 A3017 RMK A01 T00451013  RH  066%=      5-min Rain = 0
KES1 160649Z 18001KT 05/M01 A3017 RMK A01 T00451012  RH  066%=      5-min Rain = 0
KES1 160650Z 18001KT 05/M01 A3017 RMK A01 T00451013  RH  066%=      5-min Rain = 0
KES1 160651Z 19002KT 04/M01 A3017 RMK A01 T00441013  RH  066%=      5-min Rain = 0
KES1 160652Z 19002KT 04/M01 A3017 RMK A01 T00441014  RH  066%=      5-min Rain = 0
KES1 160653Z 18002KT 04/M01 A3017 RMK A01 T00431013  RH  067%=      5-min Rain = 0
KES1 160654Z 18003KT 04/M01 A3017 RMK A01 T00431014  RH  067%=      5-min Rain = 0
KES1 160655Z 18003KT 04/M01 A3017 RMK A01 T00421014  RH  067%=      5-min Rain = 0
KES1 160656Z 18003KT 04/M01 A3017 RMK A01 T00421014  RH  067%=      5-min Rain = 0
KES1 160657Z 18003KT 04/M01 A3017 RMK A01 T00411014  RH  067%=      5-min Rain = 0
KES1 160658Z 18003KT 04/M01 A3017 RMK A01 T00411014  RH  067%=      5-min Rain = 0
KES1 160659Z 19003KT 04/M02 A3017 RMK A01 T00411015  RH  067%=      5-min Rain = 0
KES1 160700Z 20002KT 04/M02 A3017 RMK A01 T00401016  RH  067%=      5-min Rain = 0
KES1 160701Z 20002KT 04/M02 A3017 RMK A01 T00391015  RH  068%=      5-min Rain = 0
KES1 160702Z 20002KT 04/M02 A3017 RMK A01 T00381016  RH  068%=      5-min Rain = 0
KES1 160703Z 20002KT 04/M02 A3017 RMK A01 T00381016  RH  068%=      5-min Rain = 0
KES1 160704Z 21001KT 04/M02 A3017 RMK A01 T00371016  RH  068%=      5-min Rain = 0
KES1 160705Z 19002KT 04/M02 A3017 RMK A01 T00371016  RH  068%=      5-min Rain = 0
KES1 160706Z 19002KT 04/M02 A3017 RMK A01 T00361016  RH  069%=      5-min Rain = 0
KES1 160707Z 20002KT 04/M02 A3017 RMK A01 T00361016  RH  069%=      5-min Rain = 0
KES1 160708Z 21001KT 04/M02 A3017 RMK A01 T00351017  RH  069%=      5-min Rain = 0
KES1 160709Z 20001KT 04/M02 A3017 RMK A01 T00351017  RH  069%=      5-min Rain = 0
KES1 160710Z 20001KT 03/M02 A3017 RMK A01 T00341017  RH  069%=      5-min Rain = 0
KES1 160711Z 20002KT 03/M02 A3017 RMK A01 T00331017  RH  070%=      5-min Rain = 0
KES1 160712Z 19001KT 03/M02 A3017 RMK A01 T00331016  RH  070%=      5-min Rain = 0
KES1 160713Z 19002KT 03/M02 A3017 RMK A01 T00331016  RH  070%=      5-min Rain = 0
KES1 160714Z 18002KT 03/M02 A3017 RMK A01 T00331016  RH  070%=      5-min Rain = 0
KES1 160715Z 18002KT 03/M02 A3017 RMK A01 T00321017  RH  070%=      5-min Rain = 0
KES1 160716Z 17002KT 03/M02 A3017 RMK A01 T00321019  RH  070%=      5-min Rain = 0
KES1 160717Z 17002KT 03/M02 A3017 RMK A01 T00301018  RH  070%=      5-min Rain = 0
KES1 160718Z 16002KT 03/M02 A3017 RMK A01 T00301017  RH  071%=      5-min Rain = 0
KES1 160719Z 16002KT 03/M02 A3017 RMK A01 T00301017  RH  071%=      5-min Rain = 0
KES1 160720Z 16001KT 03/M02 A3017 RMK A01 T00301017  RH  071%=      5-min Rain = 0
KES1 160721Z 16001KT 03/M02 A3017 RMK A01 T00301017  RH  071%=      5-min Rain = 0
KES1 160722Z 16001KT 03/M02 A3017 RMK A01 T00291018  RH  071%=      5-min Rain = 0
KES1 160723Z 17001KT 03/M02 A3016 RMK A01 T00291018  RH  071%=      5-min Rain = 0
KES1 160724Z 17001KT 03/M02 A3016 RMK A01 T00291017  RH  072%=      5-min Rain = 0
KES1 160725Z 18001KT 03/M02 A3016 RMK A01 T00281018  RH  072%=      5-min Rain = 0
KES1 160726Z 18001KT 03/M02 A3016 RMK A01 T00281018  RH  072%=      5-min Rain = 0
KES1 160727Z 18000KT 03/M02 A3016 RMK A01 T00281017  RH  072%=      5-min Rain = 0
KES1 160728Z 00000KT 03/M02 A3016 RMK A01 T00281017  RH  072%=      5-min Rain = 0
KES1 160729Z 00000KT 03/M02 A3016 RMK A01 T00281017  RH  072%=      5-min Rain = 0
KES1 160730Z 19000KT 03/M02 A3016 RMK A01 T00281017  RH  072%=      5-min Rain = 0
KES1 160731Z 19000KT 03/M02 A3016 RMK A01 T00281016  RH  072%=      5-min Rain = 0
KES1 160732Z 20000KT 03/M02 A3016 RMK A01 T00291016  RH  072%=      5-min Rain = 0
KES1 160733Z 21000KT 03/M02 A3016 RMK A01 T00291015  RH  072%=      5-min Rain = 0
KES1 160734Z 00000KT 03/M02 A3016 RMK A01 T00301015  RH  072%=      5-min Rain = 0
KES1 160735Z 21000KT 03/M02 A3016 RMK A01 T00301015  RH  072%=      5-min Rain = 0
KES1 160736Z 23001KT 03/M02 A3016 RMK A01 T00301015  RH  072%=      5-min Rain = 0
KES1 160737Z 22001KT 03/M02 A3016 RMK A01 T00301016  RH  072%=      5-min Rain = 0
KES1 160738Z 21001KT 03/M02 A3016 RMK A01 T00301016  RH  072%=      5-min Rain = 0
KES1 160739Z 21001KT 03/M02 A3016 RMK A01 T00291016  RH  072%=      5-min Rain = 0
KES1 160740Z 24001KT 03/M02 A3016 RMK A01 T00301015  RH  072%=      5-min Rain = 0
KES1 160741Z 24001KT 03/M02 A3016 RMK A01 T00301015  RH  072%=      5-min Rain = 0
KES1 160742Z 21000KT 03/M02 A3016 RMK A01 T00301015  RH  072%=      5-min Rain = 0
KES1 160743Z 23001KT 03/M02 A3016 RMK A01 T00301015  RH  073%=      5-min Rain = 0
KES1 160744Z 23001KT 03/M02 A3016 RMK A01 T00301015  RH  072%=      5-min Rain = 0
KES1 160745Z 23002KT 03/M02 A3016 RMK A01 T00301015  RH  072%=      5-min Rain = 0
KES1 160746Z 21001KT 03/M02 A3016 RMK A01 T00301016  RH  072%=      5-min Rain = 0
KES1 160747Z 19002KT 03/M02 A3016 RMK A01 T00311015  RH  072%=      5-min Rain = 0
KES1 160748Z 21002KT 03/M02 A3016 RMK A01 T00301015  RH  072%=      5-min Rain = 0
KES1 160749Z 19002KT 03/M02 A3016 RMK A01 T00311015  RH  072%=      5-min Rain = 0
KES1 160750Z 18002KT 03/M01 A3016 RMK A01 T00311014  RH  072%=      5-min Rain = 0
KES1 160751Z 18002KT 03/M01 A3016 RMK A01 T00321014  RH  072%=      5-min Rain = 0
KES1 160752Z 19001KT 03/M01 A3016 RMK A01 T00321014  RH  072%=      5-min Rain = 0
KES1 160753Z 19002KT 03/M01 A3016 RMK A01 T00321014  RH  072%=      5-min Rain = 0
KES1 160754Z 18002KT 03/M01 A3016 RMK A01 T00321013  RH  072%=      5-min Rain = 0
KES1 160755Z 20002KT 03/M01 A3016 RMK A01 T00331013  RH  072%=      5-min Rain = 0
KES1 160756Z 18002KT 03/M01 A3016 RMK A01 T00331014  RH  071%=      5-min Rain = 0
KES1 160757Z 20003KT 03/M01 A3016 RMK A01 T00331014  RH  071%=      5-min Rain = 0
KES1 160758Z 20002KT 03/M01 A3016 RMK A01 T00331014  RH  072%=      5-min Rain = 0
KES1 160759Z 21002KT 03/M01 A3016 RMK A01 T00331014  RH  072%=      5-min Rain = 0
KES1 160800Z 20002KT 03/M01 A3016 RMK A01 T00331014  RH  072%=      5-min Rain = 0
KES1 160801Z 20002KT 03/M01 A3016 RMK A01 T00331014  RH  072%=      5-min Rain = 0
KES1 160802Z 20003KT 03/M01 A3016 RMK A01 T00331013  RH  072%=      5-min Rain = 0
KES1 160803Z 20002KT 03/M01 A3016 RMK A01 T00331013  RH  072%=      5-min Rain = 0
KES1 160804Z 20003KT 03/M01 A3016 RMK A01 T00341013  RH  072%=      5-min Rain = 0
KES1 160805Z 19003KT 03/M01 A3016 RMK A01 T00341012  RH  072%=      5-min Rain = 0
KES1 160806Z 20003KT 03/M01 A3016 RMK A01 T00341013  RH  071%=      5-min Rain = 0
KES1 160807Z 19003KT 03/M01 A3016 RMK A01 T00341013  RH  071%=      5-min Rain = 0
KES1 160808Z 20003KT 03/M01 A3016 RMK A01 T00341013  RH  071%=      5-min Rain = 0
KES1 160809Z 19003KT 03/M01 A3016 RMK A01 T00341013  RH  071%=      5-min Rain = 0
KES1 160810Z 19003KT 03/M01 A3016 RMK A01 T00341012  RH  071%=      5-min Rain = 0
KES1 160811Z 20003KT 04/M01 A3015 RMK A01 T00351012  RH  071%=      5-min Rain = 0
KES1 160812Z 20003KT 04/M01 A3015 RMK A01 T00361012  RH  071%=      5-min Rain = 0
KES1 160813Z 20003KT 04/M01 A3015 RMK A01 T00361012  RH  071%=      5-min Rain = 0
KES1 160814Z 20003KT 04/M01 A3015 RMK A01 T00371012  RH  070%=      5-min Rain = 0
KES1 160815Z 20003KT 04/M01 A3015 RMK A01 T00371012  RH  070%=      5-min Rain = 0
KES1 160816Z 20003KT 04/M01 A3015 RMK A01 T00371012  RH  070%=      5-min Rain = 0
KES1 160817Z 20003KT 04/M01 A3015 RMK A01 T00371012  RH  070%=      5-min Rain = 0
KES1 160818Z 20003KT 04/M01 A3015 RMK A01 T00361013  RH  070%=      5-min Rain = 0
KES1 160819Z 20004KT 04/M01 A3015 RMK A01 T00351013  RH  071%=      5-min Rain = 0
KES1 160820Z 20004KT 04/M01 A3015 RMK A01 T00351013  RH  071%=      5-min Rain = 0
KES1 160821Z 20004KT 04/M01 A3015 RMK A01 T00351013  RH  071%=      5-min Rain = 0
KES1 160822Z 21003KT 03/M01 A3015 RMK A01 T00341013  RH  071%=      5-min Rain = 0
KES1 160823Z 21003KT 03/M01 A3015 RMK A01 T00341013  RH  071%=      5-min Rain = 0
KES1 160824Z 22003KT 03/M01 A3015 RMK A01 T00341013  RH  072%=      5-min Rain = 0
KES1 160825Z 22003KT 03/M01 A3015 RMK A01 T00331013  RH  072%=      5-min Rain = 0
KES1 160826Z 24002KT 03/M01 A3015 RMK A01 T00331014  RH  072%=      5-min Rain = 0
KES1 160827Z 24002KT 03/M02 A3015 RMK A01 T00321015  RH  072%=      5-min Rain = 0
KES1 160828Z 24002KT 03/M02 A3015 RMK A01 T00301015  RH  072%=      5-min Rain = 0
KES1 160829Z 23003KT 03/M02 A3015 RMK A01 T00301015  RH  073%=      5-min Rain = 0
KES1 160830Z 22003KT 03/M02 A3015 RMK A01 T00291015  RH  073%=      5-min Rain = 0
KES1 160831Z 23003KT 03/M02 A3015 RMK A01 T00291015  RH  073%=      5-min Rain = 0
KES1 160832Z 23003KT 03/M02 A3015 RMK A01 T00291015  RH  073%=      5-min Rain = 0
KES1 160833Z 22003KT 03/M02 A3015 RMK A01 T00291016  RH  072%=      5-min Rain = 0
KES1 160834Z 22003KT 03/M02 A3015 RMK A01 T00281017  RH  072%=      5-min Rain = 0
KES1 160835Z 23003KT 03/M02 A3015 RMK A01 T00271017  RH  073%=      5-min Rain = 0
KES1 160836Z 23003KT 03/M02 A3015 RMK A01 T00271017  RH  073%=      5-min Rain = 0
KES1 160837Z 23003KT 03/M02 A3015 RMK A01 T00261017  RH  073%=      5-min Rain = 0
KES1 160838Z 22003KT 03/M02 A3015 RMK A01 T00251017  RH  073%=      5-min Rain = 0
KES1 160839Z 22003KT 03/M02 A3015 RMK A01 T00251018  RH  074%=      5-min Rain = 0
KES1 160840Z 21003KT 03/M02 A3015 RMK A01 T00251018  RH  074%=      5-min Rain = 0
KES1 160841Z 21003KT 02/M02 A3015 RMK A01 T00241017  RH  074%=      5-min Rain = 0
KES1 160842Z 21003KT 03/M02 A3015 RMK A01 T00251016  RH  074%=      5-min Rain = 0
KES1 160843Z 21003KT 03/M02 A3015 RMK A01 T00251016  RH  074%=      5-min Rain = 0
KES1 160844Z 20003KT 03/M02 A3015 RMK A01 T00261015  RH  075%=      5-min Rain = 0
KES1 160845Z 20003KT 03/M01 A3015 RMK A01 T00271014  RH  074%=      5-min Rain = 0
KES1 160846Z 20003KT 03/M01 A3015 RMK A01 T00281014  RH  074%=      5-min Rain = 0
KES1 160847Z 20003KT 03/M01 A3015 RMK A01 T00281014  RH  074%=      5-min Rain = 0
KES1 160848Z 20003KT 03/M01 A3015 RMK A01 T00281014  RH  074%=      5-min Rain = 0
KES1 160849Z 20003KT 03/M01 A3015 RMK A01 T00291014  RH  074%=      5-min Rain = 0
KES1 160850Z 20003KT 03/M02 A3015 RMK A01 T00281015  RH  073%=      5-min Rain = 0
KES1 160851Z 20003KT 03/M01 A3015 RMK A01 T00291014  RH  073%=      5-min Rain = 0
KES1 160852Z 19003KT 03/M01 A3015 RMK A01 T00291014  RH  073%=      5-min Rain = 0
KES1 160853Z 20004KT 03/M01 A3015 RMK A01 T00291013  RH  073%=      5-min Rain = 0
KES1 160854Z 19004KT 03/M01 A3015 RMK A01 T00301013  RH  073%=      5-min Rain = 0
KES1 160855Z 19003KT 03/M01 A3015 RMK A01 T00301014  RH  073%=      5-min Rain = 0
KES1 160856Z 19003KT 03/M01 A3015 RMK A01 T00311013  RH  073%=      5-min Rain = 0
KES1 160857Z 19003KT 03/M01 A3015 RMK A01 T00311014  RH  072%=      5-min Rain = 0
KES1 160858Z 19003KT 03/M01 A3015 RMK A01 T00311014  RH  072%=      5-min Rain = 0
KES1 160859Z 18003KT 03/M01 A3015 RMK A01 T00321013  RH  072%=      5-min Rain = 0
KES1 160900Z 18001KT 03/M01 A3015 RMK A01 T00321013  RH  072%=      5-min Rain = 0
KES1 160901Z 18002KT 03/M01 A3015 RMK A01 T00321014  RH  072%=      5-min Rain = 0
KES1 160902Z 19002KT 03/M01 A3015 RMK A01 T00321014  RH  072%=      5-min Rain = 0
KES1 160903Z 18001KT 03/M01 A3015 RMK A01 T00311014  RH  072%=      5-min Rain = 0
KES1 160904Z 22001KT 03/M01 A3015 RMK A01 T00311014  RH  072%=      5-min Rain = 0
KES1 160905Z 15000KT 03/M01 A3015 RMK A01 T00311014  RH  073%=      5-min Rain = 0
KES1 160906Z 16000KT 03/M02 A3015 RMK A01 T00301015  RH  072%=      5-min Rain = 0
KES1 160907Z 20000KT 03/M02 A3015 RMK A01 T00301015  RH  073%=      5-min Rain = 0
KES1 160908Z 17002KT 03/M01 A3015 RMK A01 T00291014  RH  073%=      5-min Rain = 0
KES1 160909Z 18002KT 03/M01 A3015 RMK A01 T00301014  RH  073%=      5-min Rain = 0
KES1 160910Z 18002KT 03/M01 A3015 RMK A01 T00301014  RH  073%=      5-min Rain = 0
KES1 160911Z 19002KT 03/M01 A3015 RMK A01 T00311014  RH  073%=      5-min Rain = 0
KES1 160912Z 18002KT 03/M01 A3015 RMK A01 T00311013  RH  073%=      5-min Rain = 0
KES1 160913Z 18003KT 03/M01 A3015 RMK A01 T00321013  RH  072%=      5-min Rain = 0
KES1 160914Z 18004KT 03/M01 A3015 RMK A01 T00321013  RH  072%=      5-min Rain = 0
KES1 160915Z 19004KT 03/M01 A3015 RMK A01 T00321013  RH  072%=      5-min Rain = 0
KES1 160916Z 19004KT 03/M01 A3015 RMK A01 T00321013  RH  072%=      5-min Rain = 0
KES1 160917Z 18004KT 03/M01 A3015 RMK A01 T00321013  RH  072%=      5-min Rain = 0
KES1 160918Z 18004KT 03/M01 A3015 RMK A01 T00321013  RH  072%=      5-min Rain = 0
KES1 160919Z 18004KT 03/M01 A3015 RMK A01 T00331013  RH  072%=      5-min Rain = 0
KES1 160920Z 18004KT 03/M01 A3015 RMK A01 T00341012  RH  072%=      5-min Rain = 0
KES1 160921Z 17003KT 04/M01 A3015 RMK A01 T00351011  RH  072%=      5-min Rain = 0
KES1 160922Z 18003KT 04/M01 A3014 RMK A01 T00361012  RH  071%=      5-min Rain = 0
KES1 160923Z 17004KT 04/M01 A3014 RMK A01 T00361012  RH  071%=      5-min Rain = 0
KES1 160924Z 17003KT 04/M01 A3014 RMK A01 T00361012  RH  071%=      5-min Rain = 0
KES1 160925Z 18003KT 04/M01 A3014 RMK A01 T00361012  RH  071%=      5-min Rain = 0
KES1 160926Z 18003KT 04/M01 A3014 RMK A01 T00361012  RH  071%=      5-min Rain = 0
KES1 160927Z 17003KT 04/M01 A3014 RMK A01 T00351012  RH  071%=      5-min Rain = 0
KES1 160928Z 18004KT 04/M01 A3014 RMK A01 T00351012  RH  071%=      5-min Rain = 0
KES1 160929Z 18004KT 04/M01 A3014 RMK A01 T00351013  RH  071%=      5-min Rain = 0
KES1 160930Z 18004KT 04/M01 A3014 RMK A01 T00361012  RH  071%=      5-min Rain = 0
KES1 160931Z 18004KT 04/M01 A3014 RMK A01 T00361012  RH  071%=      5-min Rain = 0
KES1 160932Z 18005KT 04/M01 A3014 RMK A01 T00371012  RH  070%=      5-min Rain = 0
KES1 160933Z 17005KT 04/M01 A3014 RMK A01 T00381011  RH  070%=      5-min Rain = 0
KES1 160934Z 18004KT 04/M01 A3014 RMK A01 T00381012  RH  070%=      5-min Rain = 0
KES1 160935Z 18004KT 04/M01 A3014 RMK A01 T00381012  RH  070%=      5-min Rain = 0
KES1 160936Z 17005KT 04/M01 A3014 RMK A01 T00381011  RH  070%=      5-min Rain = 0
KES1 160937Z 17005KT 04/M01 A3014 RMK A01 T00381011  RH  070%=      5-min Rain = 0
KES1 160938Z 18005KT 04/M01 A3014 RMK A01 T00381012  RH  070%=      5-min Rain = 0
KES1 160939Z 18004KT 04/M01 A3014 RMK A01 T00381012  RH  070%=      5-min Rain = 0
KES1 160940Z 18004KT 04/M01 A3014 RMK A01 T00391011  RH  070%=      5-min Rain = 0
KES1 160941Z 18004KT 04/M01 A3014 RMK A01 T00391011  RH  069%=      5-min Rain = 0
KES1 160942Z 18004KT 04/M01 A3014 RMK A01 T00391012  RH  069%=      5-min Rain = 0
KES1 160943Z 18004KT 04/M01 A3014 RMK A01 T00401012  RH  069%=      5-min Rain = 0
KES1 160944Z 18004KT 04/M01 A3014 RMK A01 T00401012  RH  069%=      5-min Rain = 0
KES1 160945Z 17003KT 04/M01 A3014 RMK A01 T00401011  RH  069%=      5-min Rain = 0
KES1 160946Z 17003KT 04/M01 A3014 RMK A01 T00401012  RH  069%=      5-min Rain = 0
KES1 160947Z 18004KT 04/M01 A3014 RMK A01 T00401012  RH  069%=      5-min Rain = 0
KES1 160948Z 17004KT 04/M01 A3014 RMK A01 T00401012  RH  069%=      5-min Rain = 0
KES1 160949Z 18003KT 04/M01 A3014 RMK A01 T00391012  RH  069%=      5-min Rain = 0
KES1 160950Z 18003KT 04/M01 A3014 RMK A01 T00391012  RH  069%=      5-min Rain = 0
KES1 160951Z 17004KT 04/M01 A3014 RMK A01 T00391012  RH  069%=      5-min Rain = 0
KES1 160952Z 18005KT 04/M01 A3014 RMK A01 T00381013  RH  069%=      5-min Rain = 0
KES1 160953Z 17004KT 04/M01 A3014 RMK A01 T00371013  RH  070%=      5-min Rain = 0
KES1 160954Z 18004KT 04/M01 A3014 RMK A01 T00371013  RH  070%=      5-min Rain = 0
KES1 160955Z 18005KT 04/M01 A3014 RMK A01 T00371013  RH  070%=      5-min Rain = 0
KES1 160956Z 17005KT 04/M01 A3014 RMK A01 T00371013  RH  070%=      5-min Rain = 0
KES1 160957Z 17005KT 04/M01 A3014 RMK A01 T00371013  RH  070%=      5-min Rain = 0
KES1 160958Z 17005KT 04/M01 A3014 RMK A01 T00361013  RH  070%=      5-min Rain = 0
KES1 160959Z 17005KT 04/M01 A3014 RMK A01 T00361014  RH  070%=      5-min Rain = 0
KES1 161000Z 16005KT 04/M01 A3014 RMK A01 T00351014  RH  070%=      5-min Rain = 0
KES1 161001Z 16005KT 03/M01 A3014 RMK A01 T00341014  RH  070%=      5-min Rain = 0
KES1 161002Z 16004KT 03/M02 A3014 RMK A01 T00331016  RH  071%=      5-min Rain = 0
KES1 161003Z 16005KT 03/M02 A3014 RMK A01 T00311017  RH  071%=      5-min Rain = 0
KES1 161004Z 16006KT 03/M02 A3014 RMK A01 T00291017  RH  072%=      5-min Rain = 0
KES1 161005Z 16006KT 03/M02 A3014 RMK A01 T00281016  RH  073%=      5-min Rain = 0
KES1 161006Z 16006KT 03/M02 A3014 RMK A01 T00271016  RH  073%=      5-min Rain = 0
KES1 161007Z 16006KT 03/M02 A3014 RMK A01 T00271015  RH  074%=      5-min Rain = 0
KES1 161008Z 15006KT 03/M02 A3014 RMK A01 T00261015  RH  074%=      5-min Rain = 0
KES1 161009Z 16006KT 03/M02 A3014 RMK A01 T00261015  RH  074%=      5-min Rain = 0
KES1 161010Z 16006KT 03/M01 A3014 RMK A01 T00261014  RH  074%=      5-min Rain = 0
KES1 161011Z 16005KT 03/M01 A3014 RMK A01 T00271014  RH  074%=      5-min Rain = 0
KES1 161012Z 16005KT 03/M01 A3014 RMK A01 T00271014  RH  074%=      5-min Rain = 0
KES1 161013Z 17005KT 03/M01 A3014 RMK A01 T00281014  RH  074%=      5-min Rain = 0
KES1 161014Z 16005KT 03/M01 A3014 RMK A01 T00291013  RH  074%=      5-min Rain = 0
KES1 161015Z 17004KT 03/M01 A3014 RMK A01 T00291013  RH  074%=      5-min Rain = 0
KES1 161016Z 17003KT 03/M01 A3014 RMK A01 T00301013  RH  073%=      5-min Rain = 0
KES1 161017Z 17003KT 03/M01 A3014 RMK A01 T00301013  RH  073%=      5-min Rain = 0
KES1 161018Z 18003KT 03/M01 A3014 RMK A01 T00301013  RH  073%=      5-min Rain = 0
KES1 161019Z 17002KT 03/M01 A3014 RMK A01 T00311014  RH  073%=      5-min Rain = 0
KES1 161020Z 18002KT 03/M02 A3014 RMK A01 T00301016  RH  072%=      5-min Rain = 0
KES1 161021Z 18002KT 03/M02 A3014 RMK A01 T00291017  RH  072%=      5-min Rain = 0
KES1 161022Z 20001KT 03/M02 A3014 RMK A01 T00281018  RH  072%=      5-min Rain = 0
KES1 161023Z 18002KT 03/M02 A3014 RMK A01 T00271018  RH  072%=      5-min Rain = 0
KES1 161024Z 19002KT 03/M02 A3014 RMK A01 T00271016  RH  073%=      5-min Rain = 0
KES1 161025Z 19002KT 03/M02 A3014 RMK A01 T00271015  RH  074%=      5-min Rain = 0
KES1 161026Z 19002KT 03/M02 A3014 RMK A01 T00271016  RH  073%=      5-min Rain = 0
KES1 161027Z 19003KT 03/M02 A3013 RMK A01 T00281016  RH  073%=      5-min Rain = 0
KES1 161028Z 19003KT 03/M02 A3013 RMK A01 T00281015  RH  073%=      5-min Rain = 0
KES1 161029Z 18004KT 03/M02 A3013 RMK A01 T00281015  RH  073%=      5-min Rain = 0
KES1 161030Z 18005KT 03/M02 A3013 RMK A01 T00291015  RH  073%=      5-min Rain = 0
KES1 161031Z 18004KT 03/M02 A3013 RMK A01 T00291015  RH  073%=      5-min Rain = 0
KES1 161032Z 17005KT 03/M02 A3013 RMK A01 T00281019  RH  071%=      5-min Rain = 0
KES1 161033Z 17005KT 03/M02 A3013 RMK A01 T00251019  RH  072%=      5-min Rain = 0
KES1 161034Z 17005KT 02/M02 A3013 RMK A01 T00241019  RH  073%=      5-min Rain = 0
KES1 161035Z 17004KT 02/M02 A3013 RMK A01 T00231019  RH  074%=      5-min Rain = 0
KES1 161036Z 17004KT 02/M02 A3013 RMK A01 T00231016  RH  075%=      5-min Rain = 0
KES1 161037Z 18004KT 03/M01 A3013 RMK A01 T00251014  RH  076%=      5-min Rain = 0
KES1 161038Z 17004KT 03/M01 A3013 RMK A01 T00271013  RH  075%=      5-min Rain = 0
KES1 161039Z 18004KT 03/M01 A3013 RMK A01 T00281013  RH  075%=      5-min Rain = 0
KES1 161040Z 18004KT 03/M01 A3013 RMK A01 T00281014  RH  074%=      5-min Rain = 0
KES1 161041Z 18004KT 03/M02 A3013 RMK A01 T00281015  RH  073%=      5-min Rain = 0
KES1 161042Z 18004KT 03/M02 A3013 RMK A01 T00261019  RH  072%=      5-min Rain = 0
KES1 161043Z 18004KT 02/M02 A3013 RMK A01 T00241020  RH  073%=      5-min Rain = 0
KES1 161044Z 20002KT 02/M02 A3013 RMK A01 T00221020  RH  074%=      5-min Rain = 0
KES1 161045Z 20002KT 02/M02 A3013 RMK A01 T00211021  RH  074%=      5-min Rain = 0
KES1 161046Z 21002KT 02/M02 A3013 RMK A01 T00191023  RH  074%=      5-min Rain = 0
KES1 161047Z 22001KT 02/M02 A3013 RMK A01 T00181020  RH  075%=      5-min Rain = 0
KES1 161048Z 22001KT 02/M02 A3013 RMK A01 T00171021  RH  075%=      5-min Rain = 0
KES1 161049Z 22002KT 02/M02 A3013 RMK A01 T00161021  RH  076%=      5-min Rain = 0
KES1 161050Z 21002KT 02/M02 A3013 RMK A01 T00161021  RH  076%=      5-min Rain = 0
KES1 161051Z 20003KT 02/M02 A3013 RMK A01 T00161020  RH  077%=      5-min Rain = 0
KES1 161052Z 20003KT 02/M02 A3013 RMK A01 T00161020  RH  077%=      5-min Rain = 0
KES1 161053Z 20002KT 02/M02 A3013 RMK A01 T00151021  RH  077%=      5-min Rain = 0
KES1 161054Z 20002KT 02/M02 A3013 RMK A01 T00151021  RH  077%=      5-min Rain = 0
KES1 161055Z 19002KT 01/M02 A3013 RMK A01 T00141020  RH  078%=      5-min Rain = 0
KES1 161056Z 20003KT 02/M02 A3013 RMK A01 T00151019  RH  078%=      5-min Rain = 0
KES1 161057Z 20003KT 02/M02 A3013 RMK A01 T00151019  RH  078%=      5-min Rain = 0
KES1 161058Z 21003KT 02/M02 A3013 RMK A01 T00151020  RH  078%=      5-min Rain = 0
KES1 161059Z 21003KT 02/M02 A3013 RMK A01 T00151019  RH  078%=      5-min Rain = 0
KES1 161100Z 21004KT 02/M02 A3013 RMK A01 T00151019  RH  078%=      5-min Rain = 0
KES1 161101Z 21004KT 02/M02 A3013 RMK A01 T00151019  RH  078%=      5-min Rain = 0
KES1 161102Z 20004KT 02/M02 A3013 RMK A01 T00151019  RH  078%=      5-min Rain = 0
KES1 161103Z 21003KT 02/M02 A3013 RMK A01 T00161018  RH  078%=      5-min Rain = 0
KES1 161104Z 20003KT 02/M02 A3013 RMK A01 T00161018  RH  078%=      5-min Rain = 0
KES1 161105Z 20003KT 02/M02 A3013 RMK A01 T00171018  RH  078%=      5-min Rain = 0
KES1 161106Z 20004KT 02/M02 A3013 RMK A01 T00171018  RH  078%=      5-min Rain = 0
KES1 161107Z 20004KT 02/M02 A3013 RMK A01 T00171018  RH  078%=      5-min Rain = 0
KES1 161108Z 20004KT 02/M02 A3013 RMK A01 T00171018  RH  078%=      5-min Rain = 0
KES1 161109Z 20003KT 02/M02 A3013 RMK A01 T00181017  RH  078%=      5-min Rain = 0
KES1 161110Z 20003KT 02/M02 A3013 RMK A01 T00181018  RH  077%=      5-min Rain = 0
KES1 161111Z 20004KT 02/M02 A3013 RMK A01 T00171018  RH  077%=      5-min Rain = 0
KES1 161112Z 20004KT 02/M02 A3013 RMK A01 T00181017  RH  077%=      5-min Rain = 0
KES1 161113Z 20004KT 02/M02 A3013 RMK A01 T00181017  RH  077%=      5-min Rain = 0
KES1 161114Z 20004KT 02/M02 A3013 RMK A01 T00181017  RH  077%=      5-min Rain = 0
KES1 161115Z 20005KT 02/M02 A3013 RMK A01 T00181017  RH  077%=      5-min Rain = 0
KES1 161116Z 20005KT 02/M02 A3013 RMK A01 T00171017  RH  078%=      5-min Rain = 0
KES1 161117Z 20005KT 02/M02 A3013 RMK A01 T00181017  RH  078%=      5-min Rain = 0
KES1 161118Z 19005KT 02/M02 A3013 RMK A01 T00181016  RH  078%=      5-min Rain = 0
KES1 161119Z 19005KT 02/M02 A3013 RMK A01 T00181017  RH  077%=      5-min Rain = 0
KES1 161120Z 19005KT 02/M02 A3013 RMK A01 T00191017  RH  077%=      5-min Rain = 0
KES1 161121Z 19005KT 02/M02 A3013 RMK A01 T00191017  RH  077%=      5-min Rain = 0
KES1 161122Z 19005KT 02/M02 A3013 RMK A01 T00191017  RH  077%=      5-min Rain = 0
KES1 161123Z 19005KT 02/M02 A3013 RMK A01 T00191017  RH  077%=      5-min Rain = 0
KES1 161124Z 19006KT 02/M02 A3013 RMK A01 T00191017  RH  077%=      5-min Rain = 0
KES1 161125Z 18005KT 02/M02 A3013 RMK A01 T00191017  RH  077%=      5-min Rain = 0
KES1 161126Z 18005KT 02/M02 A3013 RMK A01 T00191016  RH  077%=      5-min Rain = 0
KES1 161127Z 18005KT 02/M02 A3013 RMK A01 T00191016  RH  077%=      5-min Rain = 0
KES1 161128Z 18005KT 02/M02 A3013 RMK A01 T00201016  RH  077%=      5-min Rain = 0
KES1 161129Z 18005KT 02/M02 A3013 RMK A01 T00201016  RH  077%=      5-min Rain = 0
KES1 161130Z 18005KT 02/M02 A3013 RMK A01 T00201017  RH  077%=      5-min Rain = 0
KES1 161131Z 18004KT 02/M02 A3013 RMK A01 T00201017  RH  077%=      5-min Rain = 0
KES1 161132Z 18004KT 02/M02 A3013 RMK A01 T00201017  RH  077%=      5-min Rain = 0
KES1 161133Z 18004KT 02/M02 A3013 RMK A01 T00191017  RH  077%=      5-min Rain = 0
KES1 161134Z 18004KT 02/M02 A3013 RMK A01 T00191017  RH  077%=      5-min Rain = 0
KES1 161135Z 18004KT 02/M02 A3013 RMK A01 T00181017  RH  077%=      5-min Rain = 0
KES1 161136Z 18004KT 02/M02 A3013 RMK A01 T00181017  RH  077%=      5-min Rain = 0
KES1 161137Z 18004KT 02/M02 A3013 RMK A01 T00181017  RH  077%=      5-min Rain = 0
KES1 161138Z 18004KT 02/M02 A3013 RMK A01 T00191017  RH  077%=      5-min Rain = 0
KES1 161139Z 19004KT 02/M02 A3013 RMK A01 T00191016  RH  077%=      5-min Rain = 0
KES1 161140Z 19004KT 02/M02 A3013 RMK A01 T00201016  RH  077%=      5-min Rain = 0
KES1 161141Z 18004KT 02/M02 A3013 RMK A01 T00201016  RH  077%=      5-min Rain = 0
KES1 161142Z 19004KT 02/M02 A3013 RMK A01 T00211016  RH  077%=      5-min Rain = 0
KES1 161143Z 19003KT 02/M02 A3013 RMK A01 T00211016  RH  076%=      5-min Rain = 0
KES1 161144Z 19003KT 02/M02 A3013 RMK A01 T00211016  RH  076%=      5-min Rain = 0
KES1 161145Z 19003KT 02/M02 A3013 RMK A01 T00201017  RH  076%=      5-min Rain = 0
KES1 161146Z 19003KT 02/M02 A3013 RMK A01 T00201017  RH  077%=      5-min Rain = 0
KES1 161147Z 19003KT 02/M02 A3013 RMK A01 T00201017  RH  077%=      5-min Rain = 0
KES1 161148Z 19002KT 02/M02 A3013 RMK A01 T00191017  RH  077%=      5-min Rain = 0
KES1 161149Z 20002KT 02/M02 A3013 RMK A01 T00181018  RH  077%=      5-min Rain = 0
KES1 161150Z 20002KT 02/M02 A3013 RMK A01 T00171019  RH  077%=      5-min Rain = 0
KES1 161151Z 19003KT 02/M02 A3013 RMK A01 T00161020  RH  077%=      5-min Rain = 0
KES1 161152Z 18002KT 02/M02 A3013 RMK A01 T00151020  RH  078%=      5-min Rain = 0
KES1 161153Z 17002KT 01/M02 A3013 RMK A01 T00141020  RH  078%=      5-min Rain = 0
KES1 161154Z 16002KT 01/M02 A3013 RMK A01 T00141019  RH  079%=      5-min Rain = 0
KES1 161155Z 17002KT 01/M02 A3013 RMK A01 T00141018  RH  079%=      5-min Rain = 0
KES1 161156Z 17002KT 01/M02 A3013 RMK A01 T00131018  RH  079%=      5-min Rain = 0
KES1 161157Z 18002KT 01/M02 A3013 RMK A01 T00141018  RH  079%=      5-min Rain = 0
KES1 161158Z 18002KT 01/M02 A3013 RMK A01 T00141018  RH  079%=      5-min Rain = 0
KES1 161159Z 18001KT 01/M02 A3013 RMK A01 T00131019  RH  079%=      5-min Rain = 0
KES1 161200Z 18001KT 01/M02 A3013 RMK A01 T00131020  RH  079%=      5-min Rain = 0
KES1 161201Z 18001KT 01/M02 A3013 RMK A01 T00121020  RH  079%=      5-min Rain = 0
KES1 161202Z 18001KT 01/M02 A3013 RMK A01 T00121021  RH  079%=      5-min Rain = 0
KES1 161203Z 18001KT 01/M02 A3013 RMK A01 T00111021  RH  079%=      5-min Rain = 0
KES1 161204Z 18001KT 01/M02 A3013 RMK A01 T00101021  RH  080%=      5-min Rain = 0
KES1 161205Z 19001KT 01/M02 A3013 RMK A01 T00101020  RH  080%=      5-min Rain = 0
KES1 161206Z 18000KT 01/M02 A3013 RMK A01 T00101020  RH  080%=      5-min Rain = 0
KES1 161207Z 18001KT 01/M02 A3013 RMK A01 T00101020  RH  081%=      5-min Rain = 0
KES1 161208Z 17000KT 01/M02 A3013 RMK A01 T00101019  RH  081%=      5-min Rain = 0
KES1 161209Z 17000KT 01/M02 A3013 RMK A01 T00101019  RH  081%=      5-min Rain = 0
KES1 161210Z 19001KT 01/M02 A3013 RMK A01 T00101019  RH  081%=      5-min Rain = 0
KES1 161211Z 19001KT 01/M02 A3013 RMK A01 T00101019  RH  081%=      5-min Rain = 0
KES1 161212Z 19001KT 01/M02 A3013 RMK A01 T00111018  RH  081%=      5-min Rain = 0
KES1 161213Z 19001KT 01/M02 A3013 RMK A01 T00111018  RH  081%=      5-min Rain = 0
KES1 161214Z 18002KT 01/M02 A3013 RMK A01 T00111018  RH  081%=      5-min Rain = 0
KES1 161215Z 18001KT 01/M02 A3013 RMK A01 T00121018  RH  080%=      5-min Rain = 0
KES1 161216Z 18001KT 01/M02 A3013 RMK A01 T00121019  RH  080%=      5-min Rain = 0
KES1 161217Z 19002KT 01/M02 A3013 RMK A01 T00111020  RH  080%=      5-min Rain = 0
KES1 161218Z 19002KT 01/M02 A3013 RMK A01 T00111020  RH  080%=      5-min Rain = 0
KES1 161219Z 19002KT 01/M02 A3013 RMK A01 T00111019  RH  080%=      5-min Rain = 0
KES1 161220Z 19002KT 01/M02 A3013 RMK A01 T00111019  RH  081%=      5-min Rain = 0
KES1 161221Z 20002KT 01/M02 A3013 RMK A01 T00111019  RH  081%=      5-min Rain = 0
KES1 161222Z 20002KT 01/M02 A3013 RMK A01 T00111019  RH  081%=      5-min Rain = 0
KES1 161223Z 20002KT 01/M02 A3013 RMK A01 T00111018  RH  081%=      5-min Rain = 0
KES1 161224Z 20002KT 01/M02 A3013 RMK A01 T00111018  RH  081%=      5-min Rain = 0
KES1 161225Z 19002KT 01/M02 A3013 RMK A01 T00121018  RH  081%=      5-min Rain = 0
KES1 161226Z 18003KT 01/M02 A3013 RMK A01 T00121018  RH  081%=      5-min Rain = 0
KES1 161227Z 18003KT 01/M02 A3013 RMK A01 T00131017  RH  080%=      5-min Rain = 0
KES1 161228Z 18003KT 01/M02 A3013 RMK A01 T00141017  RH  080%=      5-min Rain = 0
KES1 161229Z 18003KT 02/M02 A3013 RMK A01 T00151016  RH  080%=      5-min Rain = 0
KES1 161230Z 18004KT 02/M02 A3013 RMK A01 T00161016  RH  079%=      5-min Rain = 0
KES1 161231Z 18004KT 02/M02 A3013 RMK A01 T00171016  RH  079%=      5-min Rain = 0
KES1 161232Z 18004KT 02/M02 A3013 RMK A01 T00171016  RH  079%=      5-min Rain = 0
KES1 161233Z 18004KT 02/M02 A3013 RMK A01 T00181016  RH  078%=      5-min Rain = 0
KES1 161234Z 17004KT 02/M02 A3013 RMK A01 T00181016  RH  078%=      5-min Rain = 0
KES1 161235Z 17005KT 02/M02 A3013 RMK A01 T00181016  RH  078%=      5-min Rain = 0
KES1 161236Z 17004KT 02/M02 A3013 RMK A01 T00181016  RH  078%=      5-min Rain = 0
KES1 161237Z 17005KT 02/M02 A3013 RMK A01 T00181017  RH  078%=      5-min Rain = 0
KES1 161238Z 17005KT 02/M02 A3013 RMK A01 T00171017  RH  078%=      5-min Rain = 0
KES1 161239Z 17005KT 02/M02 A3012 RMK A01 T00161017  RH  078%=      5-min Rain = 0
KES1 161240Z 17005KT 02/M02 A3012 RMK A01 T00161017  RH  079%=      5-min Rain = 0
KES1 161241Z 17006KT 02/M02 A3012 RMK A01 T00161016  RH  079%=      5-min Rain = 0
KES1 161242Z 17005KT 02/M02 A3012 RMK A01 T00171016  RH  079%=      5-min Rain = 0
KES1 161243Z 17005KT 02/M02 A3013 RMK A01 T00181015  RH  079%=      5-min Rain = 0
KES1 161244Z 17005KT 02/M02 A3013 RMK A01 T00191015  RH  078%=      5-min Rain = 0
KES1 161245Z 18005KT 02/M02 A3013 RMK A01 T00201015  RH  078%=      5-min Rain = 0
KES1 161246Z 18005KT 02/M02 A3013 RMK A01 T00201015  RH  078%=      5-min Rain = 0
KES1 161247Z 18004KT 02/M02 A3013 RMK A01 T00211015  RH  077%=      5-min Rain = 0
KES1 161248Z 18004KT 02/M02 A3013 RMK A01 T00211015  RH  077%=      5-min Rain = 0
KES1 161249Z 18004KT 02/M02 A3013 RMK A01 T00211015  RH  077%=      5-min Rain = 0
KES1 161250Z 18004KT 02/M01 A3012 RMK A01 T00221014  RH  077%=      5-min Rain = 0
KES1 161251Z 18004KT 02/M01 A3012 RMK A01 T00221014  RH  077%=      5-min Rain = 0
KES1 161252Z 18004KT 02/M01 A3012 RMK A01 T00221014  RH  077%=      5-min Rain = 0
KES1 161253Z 18004KT 02/M01 A3012 RMK A01 T00231014  RH  077%=      5-min Rain = 0
KES1 161254Z 18004KT 02/M01 A3012 RMK A01 T00231014  RH  077%=      5-min Rain = 0
KES1 161255Z 18003KT 02/M01 A3012 RMK A01 T00231014  RH  077%=      5-min Rain = 0
KES1 161256Z 18003KT 02/M01 A3013 RMK A01 T00231014  RH  077%=      5-min Rain = 0
KES1 161257Z 18002KT 02/M01 A3013 RMK A01 T00231014  RH  077%=      5-min Rain = 0
KES1 161258Z 19001KT 02/M02 A3013 RMK A01 T00221017  RH  076%=      5-min Rain = 0
KES1 161259Z 23000KT 02/M02 A3013 RMK A01 T00201020  RH  075%=      5-min Rain = 0
KES1 161300Z 00000KT 02/M02 A3013 RMK A01 T00181021  RH  076%=      5-min Rain = 0
KES1 161301Z 22000KT 02/M02 A3013 RMK A01 T00161020  RH  077%=      5-min Rain = 0
KES1 161302Z 22000KT 01/M02 A3013 RMK A01 T00141020  RH  078%=      5-min Rain = 0
KES1 161303Z 22000KT 01/M02 A3013 RMK A01 T00131021  RH  078%=      5-min Rain = 0
KES1 161304Z 19001KT 01/M02 A3013 RMK A01 T00121021  RH  079%=      5-min Rain = 0
KES1 161305Z 20001KT 01/M02 A3013 RMK A01 T00121021  RH  079%=      5-min Rain = 0
KES1 161306Z 19001KT 01/M02 A3013 RMK A01 T00111021  RH  079%=      5-min Rain = 0
KES1 161307Z 17001KT 01/M02 A3013 RMK A01 T00111020  RH  080%=      5-min Rain = 0
KES1 161308Z 17001KT 01/M02 A3013 RMK A01 T00101020  RH  080%=      5-min Rain = 0
KES1 161309Z 18001KT 01/M02 A3013 RMK A01 T00101019  RH  081%=      5-min Rain = 0
KES1 161310Z 17001KT 01/M02 A3013 RMK A01 T00101019  RH  081%=      5-min Rain = 0
KES1 161311Z 18001KT 01/M02 A3013 RMK A01 T00101019  RH  081%=      5-min Rain = 0
KES1 161312Z 17001KT 01/M02 A3013 RMK A01 T00111018  RH  081%=      5-min Rain = 0
KES1 161313Z 17002KT 01/M02 A3013 RMK A01 T00111018  RH  081%=      5-min Rain = 0
KES1 161314Z 18002KT 01/M02 A3013 RMK A01 T00111017  RH  081%=      5-min Rain = 0
KES1 161315Z 18002KT 01/M02 A3013 RMK A01 T00121016  RH  081%=      5-min Rain = 0
KES1 161316Z 18002KT 01/M02 A3013 RMK A01 T00131016  RH  081%=      5-min Rain = 0
KES1 161317Z 18003KT 01/M02 A3013 RMK A01 T00131016  RH  081%=      5-min Rain = 0
KES1 161318Z 18002KT 01/M02 A3013 RMK A01 T00141016  RH  081%=      5-min Rain = 0
KES1 161319Z 19002KT 02/M02 A3013 RMK A01 T00151015  RH  081%=      5-min Rain = 0
KES1 161320Z 19003KT 02/M02 A3013 RMK A01 T00161015  RH  080%=      5-min Rain = 0
KES1 161321Z 18002KT 02/M02 A3012 RMK A01 T00161015  RH  080%=      5-min Rain = 0
KES1 161322Z 18003KT 02/M02 A3012 RMK A01 T00171015  RH  079%=      5-min Rain = 0
KES1 161323Z 19002KT 02/M02 A3012 RMK A01 T00171015  RH  079%=      5-min Rain = 0
KES1 161324Z 19002KT 02/M02 A3012 RMK A01 T00171015  RH  079%=      5-min Rain = 0
KES1 161325Z 19002KT 02/M02 A3012 RMK A01 T00181015  RH  079%=      5-min Rain = 0
KES1 161326Z 19002KT 02/M02 A3012 RMK A01 T00181016  RH  078%=      5-min Rain = 0
KES1 161327Z 19002KT 02/M02 A3013 RMK A01 T00181016  RH  078%=      5-min Rain = 0
KES1 161328Z 18002KT 02/M02 A3013 RMK A01 T00171016  RH  078%=      5-min Rain = 0
KES1 161329Z 18002KT 02/M02 A3013 RMK A01 T00181016  RH  078%=      5-min Rain = 0
KES1 161330Z 18002KT 02/M02 A3013 RMK A01 T00181016  RH  078%=      5-min Rain = 0
KES1 161331Z 18001KT 02/M02 A3013 RMK A01 T00181016  RH  078%=      5-min Rain = 0
KES1 161332Z 19001KT 02/M02 A3013 RMK A01 T00171017  RH  078%=      5-min Rain = 0
KES1 161333Z 18001KT 02/M02 A3013 RMK A01 T00171017  RH  078%=      5-min Rain = 0
KES1 161334Z 18001KT 02/M02 A3013 RMK A01 T00171017  RH  078%=      5-min Rain = 0
KES1 161335Z 16001KT 02/M02 A3013 RMK A01 T00171016  RH  078%=      5-min Rain = 0
KES1 161336Z 16001KT 02/M02 A3013 RMK A01 T00171016  RH  079%=      5-min Rain = 0
KES1 161337Z 15001KT 02/M02 A3013 RMK A01 T00171016  RH  079%=      5-min Rain = 0
KES1 161338Z 14001KT 02/M02 A3013 RMK A01 T00181015  RH  079%=      5-min Rain = 0
KES1 161339Z 15002KT 02/M02 A3013 RMK A01 T00181015  RH  079%=      5-min Rain = 0
KES1 161340Z 16002KT 02/M01 A3013 RMK A01 T00191014  RH  079%=      5-min Rain = 0
KES1 161341Z 17002KT 02/M01 A3013 RMK A01 T00191014  RH  079%=      5-min Rain = 0
KES1 161342Z 17002KT 02/M01 A3013 RMK A01 T00201013  RH  079%=      5-min Rain = 0
KES1 161343Z 16002KT 02/M01 A3013 RMK A01 T00211013  RH  078%=      5-min Rain = 0
KES1 161344Z 17002KT 02/M01 A3013 RMK A01 T00221012  RH  078%=      5-min Rain = 0
KES1 161345Z 17002KT 02/M01 A3013 RMK A01 T00231013  RH  077%=      5-min Rain = 0
KES1 161346Z 17002KT 02/M01 A3013 RMK A01 T00231012  RH  077%=      5-min Rain = 0
KES1 161347Z 17003KT 02/M01 A3013 RMK A01 T00241012  RH  077%=      5-min Rain = 0
KES1 161348Z 17003KT 03/M01 A3013 RMK A01 T00251011  RH  077%=      5-min Rain = 0
KES1 161349Z 17002KT 03/M01 A3013 RMK A01 T00261011  RH  077%=      5-min Rain = 0
KES1 161350Z 17003KT 03/M01 A3013 RMK A01 T00271010  RH  076%=      5-min Rain = 0
KES1 161351Z 17002KT 03/M01 A3013 RMK A01 T00281010  RH  076%=      5-min Rain = 0
KES1 161352Z 17003KT 03/M01 A3013 RMK A01 T00281010  RH  076%=      5-min Rain = 0
KES1 161353Z 16003KT 03/M01 A3013 RMK A01 T00291010  RH  076%=      5-min Rain = 0
KES1 161354Z 16003KT 03/M01 A3013 RMK A01 T00291010  RH  075%=      5-min Rain = 0
KES1 161355Z 16002KT 03/M01 A3013 RMK A01 T00291011  RH  075%=      5-min Rain = 0
KES1 161356Z 16002KT 03/M01 A3013 RMK A01 T00291011  RH  075%=      5-min Rain = 0
KES1 161357Z 16003KT 03/M01 A3013 RMK A01 T00291011  RH  075%=      5-min Rain = 0
KES1 161358Z 17003KT 03/M01 A3013 RMK A01 T00291010  RH  075%=      5-min Rain = 0
KES1 161359Z 17003KT 03/M01 A3013 RMK A01 T00291010  RH  075%=      5-min Rain = 0
KES1 161400Z 17003KT 03/M01 A3013 RMK A01 T00291010  RH  075%=      5-min Rain = 0
KES1 161401Z 16003KT 03/M01 A3012 RMK A01 T00301010  RH  075%=      5-min Rain = 0
KES1 161402Z 16003KT 03/M01 A3012 RMK A01 T00301009  RH  076%=      5-min Rain = 0
KES1 161403Z 17003KT 03/M01 A3012 RMK A01 T00301009  RH  076%=      5-min Rain = 0
KES1 161404Z 16004KT 03/M01 A3012 RMK A01 T00311008  RH  076%=      5-min Rain = 0
KES1 161405Z 17003KT 03/M01 A3012 RMK A01 T00321008  RH  075%=      5-min Rain = 0
KES1 161406Z 17003KT 03/M01 A3012 RMK A01 T00331007  RH  075%=      5-min Rain = 0
KES1 161407Z 16003KT 03/M01 A3012 RMK A01 T00341006  RH  075%=      5-min Rain = 0
KES1 161408Z 17003KT 03/M01 A3012 RMK A01 T00341006  RH  075%=      5-min Rain = 0
KES1 161409Z 17003KT 04/M01 A3012 RMK A01 T00351006  RH  074%=      5-min Rain = 0
KES1 161410Z 17003KT 04/M01 A3013 RMK A01 T00361005  RH  074%=      5-min Rain = 0
KES1 161411Z 17003KT 04/M01 A3013 RMK A01 T00371005  RH  074%=      5-min Rain = 0
KES1 161412Z 17003KT 04/M01 A3013 RMK A01 T00381005  RH  074%=      5-min Rain = 0
KES1 161413Z 16003KT 04/M01 A3012 RMK A01 T00381005  RH  073%=      5-min Rain = 0
KES1 161414Z 16004KT 04/M01 A3012 RMK A01 T00391005  RH  073%=      5-min Rain = 0
KES1 161415Z 17003KT 04/M01 A3012 RMK A01 T00401005  RH  073%=      5-min Rain = 0
KES1 161416Z 16004KT 04/M00 A3013 RMK A01 T00401004  RH  073%=      5-min Rain = 0
KES1 161417Z 16004KT 04/M01 A3013 RMK A01 T00411005  RH  072%=      5-min Rain = 0
KES1 161418Z 16005KT 04/M00 A3013 RMK A01 T00411004  RH  072%=      5-min Rain = 0
KES1 161419Z 16004KT 04/M00 A3012 RMK A01 T00421004  RH  072%=      5-min Rain = 0
KES1 161420Z 17004KT 04/M00 A3013 RMK A01 T00421004  RH  072%=      5-min Rain = 0
KES1 161421Z 16004KT 04/M00 A3013 RMK A01 T00431004  RH  072%=      5-min Rain = 0
KES1 161422Z 17003KT 04/M00 A3013 RMK A01 T00431003  RH  072%=      5-min Rain = 0
KES1 161423Z 17003KT 04/M00 A3013 RMK A01 T00441003  RH  072%=      5-min Rain = 0
KES1 161424Z 16004KT 04/M00 A3013 RMK A01 T00441003  RH  072%=      5-min Rain = 0
KES1 161425Z 17004KT 05/M00 A3013 RMK A01 T00451003  RH  071%=      5-min Rain = 0
KES1 161426Z 16004KT 05/M00 A3012 RMK A01 T00451002  RH  071%=      5-min Rain = 0
KES1 161427Z 17004KT 05/M00 A3012 RMK A01 T00461002  RH  071%=      5-min Rain = 0
KES1 161428Z 17004KT 05/M00 A3012 RMK A01 T00461002  RH  071%=      5-min Rain = 0
KES1 161429Z 16003KT 05/M00 A3012 RMK A01 T00471002  RH  071%=      5-min Rain = 0
KES1 161430Z 17004KT 05/M00 A3012 RMK A01 T00481001  RH  071%=      5-min Rain = 0
KES1 161431Z 17004KT 05/M00 A3012 RMK A01 T00481001  RH  070%=      5-min Rain = 0
KES1 161432Z 17004KT 05/M00 A3012 RMK A01 T00491001  RH  070%=      5-min Rain = 0
KES1 161433Z 17004KT 05/M00 A3012 RMK A01 T00501001  RH  070%=      5-min Rain = 0
KES1 161434Z 17003KT 05/M00 A3012 RMK A01 T00501001  RH  069%=      5-min Rain = 0
KES1 161435Z 18003KT 05/M00 A3012 RMK A01 T00511001  RH  069%=      5-min Rain = 0
KES1 161436Z 18003KT 05/M00 A3012 RMK A01 T00511001  RH  069%=      5-min Rain = 0
KES1 161437Z 19003KT 05/M00 A3012 RMK A01 T00521001  RH  069%=      5-min Rain = 0
KES1 161438Z 18003KT 05/M00 A3012 RMK A01 T00521001  RH  069%=      5-min Rain = 0
KES1 161439Z 18003KT 05/00 A3012 RMK A01 T005300-0  RH  069%=      5-min Rain = 0
KES1 161440Z 18004KT 05/00 A3012 RMK A01 T00540001  RH  069%=      5-min Rain = 0
KES1 161441Z 18004KT 06/00 A3012 RMK A01 T00550000  RH  068%=      5-min Rain = 0
KES1 161442Z 18004KT 06/00 A3012 RMK A01 T00550000  RH  068%=      5-min Rain = 0
KES1 161443Z 18003KT 06/00 A3012 RMK A01 T00560001  RH  068%=      5-min Rain = 0
KES1 161444Z 18003KT 06/00 A3012 RMK A01 T00570002  RH  068%=      5-min Rain = 0
KES1 161445Z 17002KT 06/00 A3012 RMK A01 T00580002  RH  067%=      5-min Rain = 0
KES1 161446Z 17003KT 06/00 A3012 RMK A01 T00590003  RH  067%=      5-min Rain = 0
KES1 161447Z 17003KT 06/00 A3012 RMK A01 T00610003  RH  066%=      5-min Rain = 0
KES1 161448Z 17004KT 06/00 A3012 RMK A01 T00620004  RH  066%=      5-min Rain = 0
KES1 161449Z 17004KT 06/00 A3012 RMK A01 T00640004  RH  065%=      5-min Rain = 0
KES1 161450Z 17004KT 07/00 A3012 RMK A01 T00650004  RH  065%=      5-min Rain = 0
KES1 161451Z 18004KT 07/00 A3012 RMK A01 T00660004  RH  064%=      5-min Rain = 0
KES1 161452Z 17004KT 07/00 A3012 RMK A01 T00670004  RH  064%=      5-min Rain = 0
KES1 161453Z 17005KT 07/00 A3012 RMK A01 T00670004  RH  064%=      5-min Rain = 0
KES1 161454Z 17005KT 07/00 A3012 RMK A01 T00680004  RH  064%=      5-min Rain = 0
KES1 161455Z 17005KT 07/01 A3012 RMK A01 T00690005  RH  064%=      5-min Rain = 0
KES1 161456Z 17005KT 07/00 A3012 RMK A01 T00690004  RH  063%=      5-min Rain = 0
KES1 161457Z 16005KT 07/01 A3012 RMK A01 T00700005  RH  063%=      5-min Rain = 0
KES1 161458Z 17005KT 07/01 A3012 RMK A01 T00700005  RH  063%=      5-min Rain = 0
KES1 161459Z 17006KT 07/01 A3011 RMK A01 T00710005  RH  063%=      5-min Rain = 0
KES1 161500Z 16006KT 07/00 A3012 RMK A01 T00710004  RH  063%=      5-min Rain = 0
KES1 161501Z 16006KT 07/01 A3011 RMK A01 T00710005  RH  063%=      5-min Rain = 0
KES1 161502Z 17006KT 07/01 A3012 RMK A01 T00710005  RH  063%=      5-min Rain = 0
KES1 161503Z 17006KT 07/01 A3012 RMK A01 T00720005  RH  062%=      5-min Rain = 0
KES1 161504Z 16005KT 07/01 A3012 RMK A01 T00720005  RH  062%=      5-min Rain = 0
KES1 161505Z 17005KT 07/01 A3012 RMK A01 T00730006  RH  062%=      5-min Rain = 0
KES1 161506Z 17006KT 07/01 A3011 RMK A01 T00740006  RH  062%=      5-min Rain = 0
KES1 161507Z 17005KT 08/01 A3011 RMK A01 T00750006  RH  062%=      5-min Rain = 0
KES1 161508Z 17005KT 08/01 A3011 RMK A01 T00760007  RH  061%=      5-min Rain = 0
KES1 161509Z 16005KT 08/01 A3011 RMK A01 T00770007  RH  061%=      5-min Rain = 0
KES1 161510Z 18004KT 08/01 A3011 RMK A01 T00780007  RH  061%=      5-min Rain = 0
KES1 161511Z 18006KT 08/01 A3011 RMK A01 T00790007  RH  060%=      5-min Rain = 0
KES1 161512Z 18005KT 08/01 A3011 RMK A01 T00790006  RH  060%=      5-min Rain = 0
KES1 161513Z 17004KT 08/01 A3011 RMK A01 T00790006  RH  060%=      5-min Rain = 0
KES1 161514Z 18004KT 08/01 A3011 RMK A01 T00790007  RH  060%=      5-min Rain = 0
KES1 161515Z 18006KT 08/01 A3011 RMK A01 T00800006  RH  060%=      5-min Rain = 0
KES1 161516Z 17006KT 08/01 A3011 RMK A01 T00800007  RH  060%=      5-min Rain = 0
KES1 161517Z 17006KT 08/01 A3011 RMK A01 T00810007  RH  060%=      5-min Rain = 0
KES1 161518Z 17004KT 08/01 A3011 RMK A01 T00820007  RH  059%=      5-min Rain = 0
KES1 161519Z 18004KT 08/01 A3011 RMK A01 T00820007  RH  059%=      5-min Rain = 0
KES1 161520Z 18004KT 08/01 A3011 RMK A01 T00840008  RH  059%=      5-min Rain = 0
KES1 161521Z 17004KT 08/01 A3011 RMK A01 T00840007  RH  058%=      5-min Rain = 0
KES1 161522Z 17004KT 09/01 A3011 RMK A01 T00850008  RH  058%=      5-min Rain = 0
KES1 161523Z 17006KT 09/01 A3011 RMK A01 T00860008  RH  058%=      5-min Rain = 0
KES1 161524Z 17007KT 09/01 A3011 RMK A01 T00870007  RH  057%=      5-min Rain = 0
KES1 161525Z 17006KT 09/01 A3011 RMK A01 T00870006  RH  057%=      5-min Rain = 0
KES1 161526Z 17006KT 09/01 A3011 RMK A01 T00870006  RH  057%=      5-min Rain = 0
KES1 161527Z 17006KT 09/01 A3011 RMK A01 T00870006  RH  057%=      5-min Rain = 0
KES1 161528Z 17005KT 09/01 A3011 RMK A01 T00880007  RH  056%=      5-min Rain = 0
KES1 161529Z 17006KT 09/01 A3011 RMK A01 T00900007  RH  056%=      5-min Rain = 0
KES1 161530Z 18006KT 09/01 A3011 RMK A01 T00910007  RH  056%=      5-min Rain = 0
KES1 161531Z 17006KT 09/01 A3011 RMK A01 T00910006  RH  055%=      5-min Rain = 0
KES1 161532Z 17006KT 09/01 A3011 RMK A01 T00920008  RH  056%=      5-min Rain = 0
KES1 161533Z 18007KT 09/01 A3011 RMK A01 T00930007  RH  055%=      5-min Rain = 0
KES1 161534Z 17007KT 09/01 A3011 RMK A01 T00930006  RH  055%=      5-min Rain = 0
KES1 161535Z 18007KT 09/01 A3011 RMK A01 T00930006  RH  055%=      5-min Rain = 0
KES1 161536Z 17006KT 09/01 A3011 RMK A01 T00940007  RH  055%=      5-min Rain = 0
KES1 161537Z 17007KT 10/01 A3011 RMK A01 T00950007  RH  054%=      5-min Rain = 0
KES1 161538Z 17008KT 10/01 A3011 RMK A01 T00960008  RH  054%=      5-min Rain = 0
KES1 161539Z 17005KT 10/01 A3011 RMK A01 T00960007  RH  054%=      5-min Rain = 0
KES1 161540Z 16009KT 10/01 A3011 RMK A01 T00970007  RH  054%=      5-min Rain = 0
KES1 161541Z 18007KT 10/01 A3011 RMK A01 T00970007  RH  054%=      5-min Rain = 0
KES1 161542Z 18007KT 10/01 A3011 RMK A01 T00980007  RH  053%=      5-min Rain = 0
KES1 161543Z 18008KT 10/01 A3011 RMK A01 T01000008  RH  053%=      5-min Rain = 0
KES1 161544Z 18006KT 10/01 A3011 RMK A01 T01000008  RH  053%=      5-min Rain = 0
KES1 161545Z 18009KT 10/01 A3011 RMK A01 T01020008  RH  052%=      5-min Rain = 0
KES1 161546Z 17009KT 10/01 A3011 RMK A01 T01020008  RH  052%=      5-min Rain = 0
KES1 161547Z 18007KT 10/01 A3011 RMK A01 T01040010  RH  052%=      5-min Rain = 0
KES1 161548Z 19007KT 11/01 A3011 RMK A01 T01050009  RH  051%=      5-min Rain = 0
KES1 161549Z 19006KT 11/01 A3011 RMK A01 T01060009  RH  051%=      5-min Rain = 0
KES1 161550Z 17006KT 11/01 A3011 RMK A01 T01060009  RH  051%=      5-min Rain = 0
KES1 161551Z 17007KT 11/01 A3011 RMK A01 T01090011  RH  051%=      5-min Rain = 0
KES1 161552Z 16005KT 11/01 A3011 RMK A01 T01110011  RH  050%=      5-min Rain = 0
KES1 161553Z 16007KT 11/01 A3011 RMK A01 T01130012  RH  050%=      5-min Rain = 0
KES1 161554Z 17008KT 12/01 A3011 RMK A01 T01150012  RH  049%=      5-min Rain = 0
KES1 161555Z 18008KT 12/01 A3011 RMK A01 T01160010  RH  048%=      5-min Rain = 0
KES1 161556Z 17006KT 12/01 A301 RMK A01 T01150011  RH  049%=      5-min Rain = 0
KES1 161557Z 17005KT 12/01 A301 RMK A01 T01170013  RH  049%=      5-min Rain = 0
KES1 161558Z 18008KT 12/01 A301 RMK A01 T01190012  RH  048%=      5-min Rain = 0
KES1 161559Z 18006KT 12/01 A3011 RMK A01 T01190010  RH  047%=      5-min Rain = 0
KES1 161600Z 17009KT 12/01 A3011 RMK A01 T01180011  RH  048%=      5-min Rain = 0
KES1 161601Z 17008KT 12/01 A3011 RMK A01 T01180010  RH  047%=      5-min Rain = 0
KES1 161602Z 18008KT 12/01 A3011 RMK A01 T01180010  RH  047%=      5-min Rain = 0
KES1 161603Z 19006KT 12/01 A3011 RMK A01 T01190011  RH  047%=      5-min Rain = 0
KES1 161604Z 19005KT 12/01 A3011 RMK A01 T01200012  RH  048%=      5-min Rain = 0
KES1 161605Z 18007KT 12/01 A3011 RMK A01 T01240014  RH  047%=      5-min Rain = 0
KES1 161606Z 19008KT 13/01 A3011 RMK A01 T01250012  RH  046%=      5-min Rain = 0
KES1 161607Z 19009KT 12/01 A301 RMK A01 T01230011  RH  046%=      5-min Rain = 0
KES1 161608Z 19009KT 12/01 A301 RMK A01 T01220010  RH  046%=      5-min Rain = 0
KES1 161609Z 20009KT 12/01 A301 RMK A01 T01200010  RH  047%=      5-min Rain = 0
KES1 161610Z 21008KT 12/01 A301 RMK A01 T01200010  RH  047%=      5-min Rain = 0
KES1 161611Z 19006KT 12/01 A301 RMK A01 T01200011  RH  047%=      5-min Rain = 0
KES1 161612Z 18006KT 12/01 A301 RMK A01 T01230012  RH  047%=      5-min Rain = 0
KES1 161613Z 20007KT 13/01 A301 RMK A01 T01250013  RH  046%=      5-min Rain = 0
KES1 161614Z 19008KT 13/01 A301 RMK A01 T01260011  RH  045%=      5-min Rain = 0
KES1 161615Z 20010KT 13/01 A301 RMK A01 T01250011  RH  046%=      5-min Rain = 0
KES1 161616Z 21009KT 12/01 A301 RMK A01 T01240011  RH  046%=      5-min Rain = 0
KES1 161617Z 22007KT 12/01 A301 RMK A01 T01240011  RH  046%=      5-min Rain = 0
KES1 161618Z 19008KT 13/01 A301 RMK A01 T01260012  RH  046%=      5-min Rain = 0
KES1 161619Z 20007KT 13/01 A301 RMK A01 T01260012  RH  046%=      5-min Rain = 0
KES1 161620Z 19008KT 13/01 A301 RMK A01 T01260012  RH  046%=      5-min Rain = 0
KES1 161621Z 18007KT 13/01 A301 RMK A01 T01280013  RH  046%=      5-min Rain = 0
KES1 161622Z 20010KT 13/01 A301 RMK A01 T01290014  RH  045%=      5-min Rain = 0
KES1 161623Z 20010KT 13/01 A301 RMK A01 T01300013  RH  045%=      5-min Rain = 0
KES1 161624Z 21010KT 13/01 A301 RMK A01 T01300013  RH  045%=      5-min Rain = 0
KES1 161625Z 20009KT 13/01 A301 RMK A01 T01300013  RH  045%=      5-min Rain = 0
KES1 161626Z 19009KT 13/01 A301 RMK A01 T01310014  RH  045%=      5-min Rain = 0
KES1 161627Z 21009KT 13/01 A301 RMK A01 T01320014  RH  044%=      5-min Rain = 0
KES1 161628Z 20009KT 13/01 A301 RMK A01 T01330014  RH  044%=      5-min Rain = 0
KES1 161629Z 21009KT 13/01 A301 RMK A01 T01330014  RH  044%=      5-min Rain = 0
KES1 161630Z 20008KT 13/01 A301 RMK A01 T01340014  RH  044%=      5-min Rain = 0
KES1 161631Z 18005KT 14/01 A301 RMK A01 T01350014  RH  044%=      5-min Rain = 0
KES1 161632Z 19005KT 14/02 A301 RMK A01 T01360016  RH  044%=      5-min Rain = 0
KES1 161633Z 20008KT 14/01 A301 RMK A01 T01370014  RH  043%=      5-min Rain = 0
KES1 161634Z 21008KT 14/02 A301 RMK A01 T01370015  RH  043%=      5-min Rain = 0
KES1 161635Z 21007KT 14/01 A301 RMK A01 T01370014  RH  043%=      5-min Rain = 0
KES1 161636Z 20006KT 14/01 A301 RMK A01 T01360014  RH  044%=      5-min Rain = 0
KES1 161637Z 17006KT 14/02 A301 RMK A01 T01360015  RH  044%=      5-min Rain = 0
KES1 161638Z 20006KT 14/02 A301 RMK A01 T01390017  RH  043%=      5-min Rain = 0
KES1 161639Z 18007KT 14/02 A301 RMK A01 T01430018  RH  043%=      5-min Rain = 0
KES1 161640Z 20009KT 14/02 A301 RMK A01 T01430017  RH  042%=      5-min Rain = 0
KES1 161641Z 21010KT 14/02 A301 RMK A01 T01430016  RH  042%=      5-min Rain = 0
KES1 161642Z 18008KT 14/02 A301 RMK A01 T01410015  RH  042%=      5-min Rain = 0
KES1 161643Z 19008KT 14/02 A301 RMK A01 T01420017  RH  043%=      5-min Rain = 0
KES1 161644Z 21009KT 14/02 A301 RMK A01 T01430016  RH  042%=      5-min Rain = 0
KES1 161645Z 19007KT 14/02 A3009 RMK A01 T01430016  RH  042%=      5-min Rain = 0
KES1 161646Z 16006KT 14/02 A3009 RMK A01 T01430017  RH  042%=      5-min Rain = 0
KES1 161647Z 17007KT 15/02 A3009 RMK A01 T01450018  RH  042%=      5-min Rain = 0
KES1 161648Z 18007KT 15/02 A3009 RMK A01 T01490019  RH  041%=      5-min Rain = 0
KES1 161649Z 16008KT 15/02 A3009 RMK A01 T01490018  RH  041%=      5-min Rain = 0
KES1 161650Z 16008KT 15/02 A3009 RMK A01 T01470017  RH  041%=      5-min Rain = 0
KES1 161651Z 16009KT 15/02 A3009 RMK A01 T01460017  RH  042%=      5-min Rain = 0
KES1 161652Z 17008KT 15/02 A3009 RMK A01 T01460017  RH  041%=      5-min Rain = 0
KES1 161653Z 18010KT 15/02 A3009 RMK A01 T01460018  RH  042%=      5-min Rain = 0
KES1 161654Z 19008KT 14/02 A3009 RMK A01 T01440017  RH  042%=      5-min Rain = 0
KES1 161655Z 19006KT 14/02 A3009 RMK A01 T01430016  RH  042%=      5-min Rain = 0
KES1 161656Z 17006KT 14/02 A3009 RMK A01 T01420017  RH  043%=      5-min Rain = 0
KES1 161657Z 17006KT 15/02 A3009 RMK A01 T01450019  RH  043%=      5-min Rain = 0
KES1 161658Z 16008KT 15/02 A3009 RMK A01 T01480019  RH  042%=      5-min Rain = 0
KES1 161659Z 17007KT 15/02 A3009 RMK A01 T01490018  RH  041%=      5-min Rain = 0
KES1 161700Z 18008KT 15/02 A3009 RMK A01 T01490019  RH  041%=      5-min Rain = 0
KES1 161701Z 18008KT 15/02 A3009 RMK A01 T01490018  RH  041%=      5-min Rain = 0
KES1 161702Z 18007KT 15/02 A3009 RMK A01 T01500018  RH  041%=      5-min Rain = 0
KES1 161703Z 16007G12KT 15/02 A3009 RMK A01 T01510020  RH  041%=      5-min Rain = 0
KES1 161704Z 18009KT 15/02 A3008 RMK A01 T01540021  RH  040%=      5-min Rain = 0
KES1 161705Z 16008KT 15/02 A3008 RMK A01 T01540020  RH  040%=      5-min Rain = 0
KES1 161706Z 18009KT 16/02 A3008 RMK A01 T01550020  RH  040%=      5-min Rain = 0
KES1 161707Z 18010KT 16/02 A3008 RMK A01 T01560020  RH  040%=      5-min Rain = 0
KES1 161708Z 19008KT 16/02 A3008 RMK A01 T01560020  RH  040%=      5-min Rain = 0
KES1 161709Z 16006KT 16/02 A3008 RMK A01 T01580022  RH  040%=      5-min Rain = 0
KES1 161710Z 17008KT 16/02 A3008 RMK A01 T01630024  RH  039%=      5-min Rain = 0
KES1 161711Z 16007KT 17/02 A3008 RMK A01 T01660022  RH  038%=      5-min Rain = 0
KES1 161712Z 17007KT 17/02 A3008 RMK A01 T01670023  RH  038%=      5-min Rain = 0
KES1 161713Z 16006KT 17/02 A3008 RMK A01 T01680021  RH  037%=      5-min Rain = 0
KES1 161714Z 16007KT 17/02 A3008 RMK A01 T01680023  RH  038%=      5-min Rain = 0
KES1 161715Z 18011KT 17/02 A3008 RMK A01 T01700022  RH  037%=      5-min Rain = 0
KES1 161716Z 20007KT 17/02 A3008 RMK A01 T01700022  RH  037%=      5-min Rain = 0
KES1 161717Z 18008KT 17/02 A3008 RMK A01 T01710023  RH  037%=      5-min Rain = 0
KES1 161718Z 17007KT 17/02 A3008 RMK A01 T01720022  RH  037%=      5-min Rain = 0
KES1 161719Z 19010KT 17/02 A3008 RMK A01 T01720022  RH  037%=      5-min Rain = 0
KES1 161720Z 19008KT 17/02 A3008 RMK A01 T01690019  RH  037%=      5-min Rain = 0
KES1 161721Z 17009KT 17/02 A3008 RMK A01 T01660021  RH  038%=      5-min Rain = 0
KES1 161722Z 18009KT 17/02 A3008 RMK A01 T01680022  RH  037%=      5-min Rain = 0
KES1 161723Z 17010KT 17/02 A3007 RMK A01 T01700021  RH  037%=      5-min Rain = 0
KES1 161724Z 17007G12KT 17/02 A3007 RMK A01 T01700022  RH  037%=      5-min Rain = 0
KES1 161725Z 18011KT 17/02 A3007 RMK A01 T01730022  RH  036%=      5-min Rain = 0
KES1 161726Z 18009KT 17/02 A3007 RMK A01 T01740022  RH  036%=      5-min Rain = 0
KES1 161727Z 17012KT 18/02 A3007 RMK A01 T01750022  RH  036%=      5-min Rain = 0
KES1 161728Z 16013KT 18/02 A3007 RMK A01 T01750022  RH  036%=      5-min Rain = 0
KES1 161729Z 17011KT 17/02 A3007 RMK A01 T01740021  RH  036%=      5-min Rain = 0
KES1 161730Z 17008KT 17/02 A3007 RMK A01 T01740021  RH  036%=      5-min Rain = 0
KES1 161731Z 19008KT 17/02 A3007 RMK A01 T01730021  RH  036%=      5-min Rain = 0
KES1 161732Z 17007KT 17/02 A3007 RMK A01 T01740022  RH  036%=      5-min Rain = 0
KES1 161733Z 16008KT 18/02 A3006 RMK A01 T01760022  RH  036%=      5-min Rain = 0
KES1 161734Z 16009KT 18/02 A3006 RMK A01 T01770023  RH  036%=      5-min Rain = 0
KES1 161735Z 18011KT 18/02 A3006 RMK A01 T01810023  RH  035%=      5-min Rain = 0
KES1 161736Z 21010KT 18/02 A3006 RMK A01 T01810022  RH  035%=      5-min Rain = 0
KES1 161737Z 21009KT 18/02 A3006 RMK A01 T01770020  RH  035%=      5-min Rain = 0
KES1 161738Z 19005KT 18/02 A3006 RMK A01 T01760021  RH  035%=      5-min Rain = 0
KES1 161739Z 17005G10KT 18/02 A3006 RMK A01 T01780023  RH  036%=      5-min Rain = 0
KES1 161740Z 17007G12KT 18/02 A3006 RMK A01 T01820024  RH  035%=      5-min Rain = 0
KES1 161741Z 18012KT 19/02 A3006 RMK A01 T01850023  RH  034%=      5-min Rain = 0
KES1 161742Z 17010KT 19/02 A3006 RMK A01 T01860022  RH  034%=      5-min Rain = 0
KES1 161743Z 17012KT 19/02 A3006 RMK A01 T01870023  RH  033%=      5-min Rain = 0
KES1 161744Z 18012KT 19/02 A3006 RMK A01 T01860021  RH  033%=      5-min Rain = 0
KES1 161745Z 17009KT 18/02 A3006 RMK A01 T01840021  RH  034%=      5-min Rain = 0
KES1 161746Z 17009KT 19/02 A3006 RMK A01 T01850022  RH  034%=      5-min Rain = 0
KES1 161747Z 16010KT 19/02 A3006 RMK A01 T01870023  RH  034%=      5-min Rain = 0
KES1 161748Z 16010KT 19/02 A3005 RMK A01 T01890022  RH  033%=      5-min Rain = 0
KES1 161749Z 17008KT 19/02 A3005 RMK A01 T01880022  RH  033%=      5-min Rain = 0
KES1 161750Z 18007KT 19/02 A3005 RMK A01 T01900023  RH  033%=      5-min Rain = 0
KES1 161751Z 18011KT 19/02 A3005 RMK A01 T01900023  RH  033%=      5-min Rain = 0
KES1 161752Z 16010KT 19/02 A3005 RMK A01 T01910023  RH  033%=      5-min Rain = 0
KES1 161753Z 16011KT 19/02 A3005 RMK A01 T01920022  RH  032%=      5-min Rain = 0
KES1 161754Z 16012KT 19/02 A3005 RMK A01 T01920021  RH  032%=      5-min Rain = 0
KES1 161755Z 17008KT 19/02 A3005 RMK A01 T01910021  RH  032%=      5-min Rain = 0
KES1 161756Z 18012KT 19/02 A3005 RMK A01 T01910021  RH  032%=      5-min Rain = 0
KES1 161757Z 18011KT 19/02 A3005 RMK A01 T01910020  RH  032%=      5-min Rain = 0
KES1 161758Z 18011KT 19/02 A3005 RMK A01 T01900021  RH  032%=      5-min Rain = 0
KES1 161759Z 17008KT 19/02 A3005 RMK A01 T01900021  RH  032%=      5-min Rain = 0
KES1 161800Z 17008KT 19/02 A3005 RMK A01 T01900021  RH  032%=      5-min Rain = 0
KES1 161801Z 16011KT 19/02 A3005 RMK A01 T01920022  RH  032%=      5-min Rain = 0
KES1 161802Z 17010KT 19/02 A3005 RMK A01 T01930021  RH  032%=      5-min Rain = 0
KES1 161803Z 18008KT 19/02 A3004 RMK A01 T01910020  RH  032%=      5-min Rain = 0
KES1 161804Z 17010KT 19/02 A3004 RMK A01 T01910021  RH  032%=      5-min Rain = 0
KES1 161805Z 18011G16KT 19/02 A3004 RMK A01 T01910020  RH  032%=      5-min Rain = 0
KES1 161806Z 18012KT 19/02 A3004 RMK A01 T01910020  RH  032%=      5-min Rain = 0
KES1 161807Z 17012G17KT 19/02 A3004 RMK A01 T01920020  RH  032%=      5-min Rain = 0
KES1 161808Z 17008KT 19/02 A3004 RMK A01 T01920020  RH  032%=      5-min Rain = 0
KES1 161809Z 18010KT 19/02 A3004 RMK A01 T01940021  RH  031%=      5-min Rain = 0
KES1 161810Z 18013KT 20/02 A3004 RMK A01 T01950020  RH  031%=      5-min Rain = 0
KES1 161811Z 18009KT 19/02 A3004 RMK A01 T01940019  RH  031%=      5-min Rain = 0
KES1 161812Z 19011KT 19/02 A3004 RMK A01 T01940020  RH  031%=      5-min Rain = 0
KES1 161813Z 18011KT 20/02 A3004 RMK A01 T01950020  RH  031%=      5-min Rain = 0
KES1 161814Z 17011KT 20/02 A3004 RMK A01 T01950020  RH  031%=      5-min Rain = 0
KES1 161815Z 17012KT 20/02 A3004 RMK A01 T01950019  RH  031%=      5-min Rain = 0
KES1 161816Z 18012KT 19/02 A3004 RMK A01 T01940019  RH  031%=      5-min Rain = 0
KES1 161817Z 18014KT 19/02 A3004 RMK A01 T01940018  RH  031%=      5-min Rain = 0
KES1 161818Z 18011KT 19/02 A3004 RMK A01 T01920019  RH  031%=      5-min Rain = 0
KES1 161819Z 16011KT 19/02 A3004 RMK A01 T01920019  RH  032%=      5-min Rain = 0
KES1 161820Z 16011KT 19/02 A3004 RMK A01 T01930019  RH  031%=      5-min Rain = 0
KES1 161821Z 16012KT 19/02 A3003 RMK A01 T01920018  RH  031%=      5-min Rain = 0
KES1 161822Z 18010KT 19/02 A3003 RMK A01 T01910018  RH  032%=      5-min Rain = 0
KES1 161823Z 20011KT 19/02 A3003 RMK A01 T01910019  RH  032%=      5-min Rain = 0
KES1 161824Z 18008KT 19/02 A3003 RMK A01 T01900019  RH  032%=      5-min Rain = 0
KES1 161825Z 17009KT 19/02 A3003 RMK A01 T01900020  RH  032%=      5-min Rain = 0
KES1 161826Z 15010KT 19/02 A3003 RMK A01 T01900019  RH  032%=      5-min Rain = 0
KES1 161827Z 17011KT 19/02 A3003 RMK A01 T01900019  RH  032%=      5-min Rain = 0
KES1 161828Z 16007KT 19/02 A3003 RMK A01 T01900019  RH  032%=      5-min Rain = 0
KES1 161829Z 15011KT 19/02 A3003 RMK A01 T01900020  RH  032%=      5-min Rain = 0
KES1 161830Z 16012KT 19/02 A3003 RMK A01 T01910020  RH  032%=      5-min Rain = 0
KES1 161831Z 17011KT 19/02 A3003 RMK A01 T01910019  RH  032%=      5-min Rain = 0
KES1 161832Z 16013KT 19/02 A3003 RMK A01 T01900019  RH  032%=      5-min Rain = 0
KES1 161833Z 16009G16KT 19/02 A3002 RMK A01 T01910021  RH  032%=      5-min Rain = 0
KES1 161834Z 16009G15KT 19/02 A3002 RMK A01 T01920021  RH  032%=      5-min Rain = 0
KES1 161835Z 16009KT 20/02 A3002 RMK A01 T01950022  RH  032%=      5-min Rain = 0
KES1 161836Z 16009KT 20/02 A3002 RMK A01 T01950022  RH  031%=      5-min Rain = 0
KES1 161837Z 15007KT 20/02 A3002 RMK A01 T01960022  RH  031%=      5-min Rain = 0
KES1 161838Z 17013KT 20/02 A3002 RMK A01 T01980022  RH  031%=      5-min Rain = 0
KES1 161839Z 18011KT 20/02 A3002 RMK A01 T01980021  RH  031%=      5-min Rain = 0
KES1 161840Z 17013KT 20/02 A3002 RMK A01 T01980021  RH  031%=      5-min Rain = 0
KES1 161841Z 17010KT 20/02 A3002 RMK A01 T01980021  RH  031%=      5-min Rain = 0
KES1 161842Z 17009KT 20/02 A3002 RMK A01 T01990022  RH  031%=      5-min Rain = 0
KES1 161843Z 16010KT 20/02 A3002 RMK A01 T02000023  RH  031%=      5-min Rain = 0
KES1 161844Z 16009KT 20/02 A3002 RMK A01 T02020022  RH  030%=      5-min Rain = 0
KES1 161845Z 17011G18KT 20/02 A3001 RMK A01 T02010022  RH  030%=      5-min Rain = 0
KES1 161846Z 17014KT 20/02 A3001 RMK A01 T02000020  RH  030%=      5-min Rain = 0
KES1 161847Z 16012KT 20/02 A3001 RMK A01 T01970019  RH  031%=      5-min Rain = 0
KES1 161848Z 17011KT 20/02 A3001 RMK A01 T01960020  RH  031%=      5-min Rain = 0
KES1 161849Z 18013KT 20/02 A3001 RMK A01 T01960021  RH  031%=      5-min Rain = 0
KES1 161850Z 18015KT 20/02 A3001 RMK A01 T01960021  RH  031%=      5-min Rain = 0
KES1 161851Z 17012KT 20/02 A3001 RMK A01 T01950021  RH  031%=      5-min Rain = 0
KES1 161852Z 18011G16KT 20/02 A3001 RMK A01 T01950021  RH  031%=      5-min Rain = 0
KES1 161853Z 18011KT 20/02 A3001 RMK A01 T01960021  RH  031%=      5-min Rain = 0
KES1 161854Z 18012KT 20/02 A3001 RMK A01 T01960020  RH  031%=      5-min Rain = 0
KES1 161855Z 19015KT 20/02 A3001 RMK A01 T01960020  RH  031%=      5-min Rain = 0
KES1 161856Z 17014KT 19/02 A3001 RMK A01 T01940020  RH  031%=      5-min Rain = 0
KES1 161857Z 16011KT 19/02 A3001 RMK A01 T01930020  RH  032%=      5-min Rain = 0
KES1 161858Z 16010KT 20/02 A3001 RMK A01 T01960022  RH  031%=      5-min Rain = 0
KES1 161859Z 17012KT 20/02 A3001 RMK A01 T01980021  RH  031%=      5-min Rain = 0
KES1 161900Z 16009KT 20/02 A30 RMK A01 T01980021  RH  031%=      5-min Rain = 0
KES1 161901Z 16010KT 20/02 A30 RMK A01 T01980022  RH  031%=      5-min Rain = 0
KES1 161902Z 18012KT 20/02 A30 RMK A01 T02000022  RH  031%=      5-min Rain = 0
KES1 161903Z 18013G19KT 20/02 A30 RMK A01 T02020021  RH  030%=      5-min Rain = 0
KES1 161904Z 18014G19KT 20/02 A30 RMK A01 T02010020  RH  030%=      5-min Rain = 0
KES1 161905Z 18013KT 20/02 A30 RMK A01 T02000020  RH  030%=      5-min Rain = 0
KES1 161906Z 17012KT 20/02 A30 RMK A01 T02000019  RH  030%=      5-min Rain = 0
KES1 161907Z 17014KT 20/02 A30 RMK A01 T01990019  RH  030%=      5-min Rain = 0
KES1 161908Z 15014KT 20/02 A30 RMK A01 T01980018  RH  030%=      5-min Rain = 0
KES1 161909Z 16013KT 20/02 A30 RMK A01 T01980019  RH  030%=      5-min Rain = 0
KES1 161910Z 15014KT 20/02 A2999 RMK A01 T01980019  RH  030%=      5-min Rain = 0
KES1 161911Z 16011KT 20/02 A2999 RMK A01 T01980019  RH  030%=      5-min Rain = 0
KES1 161912Z 16013KT 20/02 A2999 RMK A01 T01990020  RH  030%=      5-min Rain = 0
KES1 161913Z 16014KT 20/02 A2999 RMK A01 T01980019  RH  030%=      5-min Rain = 0
KES1 161914Z 16012KT 20/02 A2999 RMK A01 T01980020  RH  031%=      5-min Rain = 0
KES1 161915Z 17013G18KT 20/02 A2999 RMK A01 T01980020  RH  031%=      5-min Rain = 0
KES1 161916Z 17010KT 20/02 A2999 RMK A01 T01980020  RH  030%=      5-min Rain = 0
KES1 161917Z 18013KT 20/02 A2999 RMK A01 T01990021  RH  030%=      5-min Rain = 0
KES1 161918Z 18014KT 20/02 A2999 RMK A01 T01990019  RH  030%=      5-min Rain = 0
KES1 161919Z 17015G20KT 20/02 A2999 RMK A01 T01980019  RH  031%=      5-min Rain = 0
KES1 161920Z 17013KT 20/02 A2999 RMK A01 T01980020  RH  031%=      5-min Rain = 0
KES1 161921Z 17013KT 20/02 A2999 RMK A01 T01980020  RH  031%=      5-min Rain = 0
KES1 161922Z 18014KT 20/02 A2999 RMK A01 T01980020  RH  031%=      5-min Rain = 0
KES1 161923Z 18011KT 20/02 A2998 RMK A01 T01990021  RH  031%=      5-min Rain = 0
KES1 161924Z 17012KT 20/02 A2998 RMK A01 T02010021  RH  030%=      5-min Rain = 0
KES1 161925Z 17013KT 20/02 A2998 RMK A01 T02020021  RH  030%=      5-min Rain = 0
KES1 161926Z 17012KT 20/02 A2998 RMK A01 T02020021  RH  030%=      5-min Rain = 0
KES1 161927Z 16012KT 20/02 A2998 RMK A01 T02010021  RH  030%=      5-min Rain = 0
KES1 161928Z 15012KT 20/02 A2998 RMK A01 T02010022  RH  030%=      5-min Rain = 0
KES1 161929Z 16013KT 20/02 A2998 RMK A01 T02030022  RH  030%=      5-min Rain = 0
KES1 161930Z 16013KT 20/02 A2998 RMK A01 T02020022  RH  030%=      5-min Rain = 0
KES1 161931Z 17013KT 20/02 A2998 RMK A01 T02020022  RH  030%=      5-min Rain = 0
KES1 161932Z 15012KT 20/02 A2998 RMK A01 T02010022  RH  030%=      5-min Rain = 0
KES1 161933Z 15013KT 20/02 A2998 RMK A01 T02010022  RH  030%=      5-min Rain = 0
KES1 161934Z 17011KT 20/02 A2998 RMK A01 T02020022  RH  030%=      5-min Rain = 0
KES1 161935Z 17012KT 20/02 A2998 RMK A01 T02020022  RH  030%=      5-min Rain = 0
KES1 161936Z 17013KT 20/02 A2998 RMK A01 T02030023  RH  030%=      5-min Rain = 0
KES1 161937Z 17013KT 20/02 A2998 RMK A01 T02030022  RH  030%=      5-min Rain = 0
KES1 161938Z 16014KT 20/02 A2998 RMK A01 T02030021  RH  030%=      5-min Rain = 0
KES1 161939Z 17010KT 20/02 A2998 RMK A01 T02030020  RH  030%=      5-min Rain = 0
KES1 161940Z 17014KT 20/02 A2997 RMK A01 T02040021  RH  030%=      5-min Rain = 0
KES1 161941Z 17010KT 20/02 A2997 RMK A01 T02040021  RH  030%=      5-min Rain = 0
KES1 161942Z 18009KT 20/02 A2997 RMK A01 T02040022  RH  030%=      5-min Rain = 0
KES1 161943Z 16015KT 21/02 A2997 RMK A01 T02050021  RH  030%=      5-min Rain = 0
KES1 161944Z 15014KT 21/02 A2997 RMK A01 T02050021  RH  030%=      5-min Rain = 0
KES1 161945Z 16012KT 20/02 A2997 RMK A01 T02040020  RH  030%=      5-min Rain = 0
KES1 161946Z 16009KT 20/02 A2997 RMK A01 T02030021  RH  030%=      5-min Rain = 0
KES1 161947Z 17011KT 20/02 A2997 RMK A01 T02040021  RH  030%=      5-min Rain = 0
KES1 161948Z 18013KT 21/02 A2997 RMK A01 T02050022  RH  030%=      5-min Rain = 0
KES1 161949Z 17012KT 20/02 A2997 RMK A01 T02040021  RH  030%=      5-min Rain = 0
KES1 161950Z 16012G17KT 20/02 A2997 RMK A01 T02040021  RH  030%=      5-min Rain = 0
KES1 161951Z 17014KT 20/02 A2997 RMK A01 T02030021  RH  030%=      5-min Rain = 0
KES1 161952Z 16013KT 20/02 A2997 RMK A01 T02010020  RH  030%=      5-min Rain = 0
KES1 161953Z 15009KT 20/02 A2997 RMK A01 T02010020  RH  030%=      5-min Rain = 0
KES1 161954Z 18012G17KT 20/02 A2997 RMK A01 T02000020  RH  030%=      5-min Rain = 0
KES1 161955Z 18015KT 20/02 A2997 RMK A01 T02010020  RH  030%=      5-min Rain = 0
KES1 161956Z 17011KT 20/02 A2997 RMK A01 T02010020  RH  030%=      5-min Rain = 0
KES1 161957Z 18012KT 20/02 A2997 RMK A01 T02010021  RH  030%=      5-min Rain = 0
KES1 161958Z 17011KT 20/02 A2997 RMK A01 T02010021  RH  030%=      5-min Rain = 0
KES1 161959Z 17011KT 20/02 A2997 RMK A01 T02000021  RH  030%=      5-min Rain = 0
KES1 162000Z 17014KT 20/02 A2997 RMK A01 T02000021  RH  030%=      5-min Rain = 0
KES1 162001Z 17013KT 20/02 A2997 RMK A01 T01990020  RH  030%=      5-min Rain = 0
KES1 162002Z 16013KT 20/02 A2997 RMK A01 T01990020  RH  030%=      5-min Rain = 0
KES1 162003Z 17014KT 20/02 A2997 RMK A01 T01980021  RH  031%=      5-min Rain = 0
KES1 162004Z 17011KT 20/02 A2997 RMK A01 T01980021  RH  031%=      5-min Rain = 0
KES1 162005Z 16012KT 20/02 A2997 RMK A01 T01980022  RH  031%=      5-min Rain = 0
KES1 162006Z 17010KT 20/02 A2996 RMK A01 T01990022  RH  031%=      5-min Rain = 0
KES1 162007Z 18010KT 20/02 A2997 RMK A01 T01990022  RH  031%=      5-min Rain = 0
KES1 162008Z 18014KT 20/02 A2996 RMK A01 T02010022  RH  030%=      5-min Rain = 0
KES1 162009Z 18014KT 20/02 A2996 RMK A01 T02000021  RH  030%=      5-min Rain = 0
KES1 162010Z 17013KT 20/02 A2996 RMK A01 T01990021  RH  031%=      5-min Rain = 0
KES1 162011Z 16011KT 20/02 A2996 RMK A01 T01970021  RH  031%=      5-min Rain = 0
KES1 162012Z 16012KT 20/02 A2996 RMK A01 T01970022  RH  031%=      5-min Rain = 0
KES1 162013Z 16011KT 20/02 A2996 RMK A01 T01970022  RH  031%=      5-min Rain = 0
KES1 162014Z 15013KT 20/02 A2996 RMK A01 T01970022  RH  031%=      5-min Rain = 0
KES1 162015Z 16014KT 20/02 A2996 RMK A01 T01970022  RH  031%=      5-min Rain = 0
KES1 162016Z 16011KT 20/02 A2996 RMK A01 T01960022  RH  032%=      5-min Rain = 0
KES1 162017Z 15014KT 20/02 A2996 RMK A01 T01960022  RH  032%=      5-min Rain = 0
KES1 162018Z 17013G18KT 20/02 A2996 RMK A01 T01950023  RH  032%=      5-min Rain = 0
KES1 162019Z 15011KT 19/02 A2996 RMK A01 T01940024  RH  032%=      5-min Rain = 0
KES1 162020Z 15012KT 19/02 A2996 RMK A01 T01940024  RH  032%=      5-min Rain = 0
KES1 162021Z 16012KT 19/02 A2996 RMK A01 T01930024  RH  032%=      5-min Rain = 0
KES1 162022Z 15011KT 19/02 A2996 RMK A01 T01930024  RH  033%=      5-min Rain = 0
KES1 162023Z 16010G16KT 19/02 A2996 RMK A01 T01930024  RH  033%=      5-min Rain = 0
KES1 162024Z 16015KT 19/02 A2996 RMK A01 T01930024  RH  033%=      5-min Rain = 0
KES1 162025Z 15016KT 19/02 A2996 RMK A01 T01900023  RH  033%=      5-min Rain = 0
KES1 162026Z 16014KT 19/02 A2996 RMK A01 T01880023  RH  033%=      5-min Rain = 0
KES1 162027Z 15011KT 19/02 A2996 RMK A01 T01880024  RH  033%=      5-min Rain = 0
KES1 162028Z 16012KT 19/02 A2996 RMK A01 T01880024  RH  034%=      5-min Rain = 0
KES1 162029Z 16014KT 19/02 A2996 RMK A01 T01880024  RH  034%=      5-min Rain = 0
KES1 162030Z 15012KT 19/02 A2996 RMK A01 T01870024  RH  034%=      5-min Rain = 0
KES1 162031Z 15014KT 19/03 A2996 RMK A01 T01870025  RH  034%=      5-min Rain = 0
KES1 162032Z 16010KT 19/02 A2996 RMK A01 T01860024  RH  034%=      5-min Rain = 0
KES1 162033Z 17013KT 19/02 A2996 RMK A01 T01860024  RH  034%=      5-min Rain = 0
KES1 162034Z 18012KT 19/02 A2995 RMK A01 T01860024  RH  034%=      5-min Rain = 0
KES1 162035Z 16011KT 19/02 A2995 RMK A01 T01850024  RH  034%=      5-min Rain = 0
KES1 162036Z 16011G16KT 19/02 A2995 RMK A01 T01850024  RH  034%=      5-min Rain = 0
KES1 162037Z 16014KT 19/02 A2995 RMK A01 T01850024  RH  034%=      5-min Rain = 0
KES1 162038Z 15013KT 19/02 A2995 RMK A01 T01850024  RH  034%=      5-min Rain = 0
KES1 162039Z 15011G16KT 18/02 A2995 RMK A01 T01840024  RH  034%=      5-min Rain = 0
KES1 162040Z 16012KT 18/02 A2995 RMK A01 T01830024  RH  034%=      5-min Rain = 0
KES1 162041Z 16015KT 18/02 A2995 RMK A01 T01830024  RH  034%=      5-min Rain = 0
KES1 162042Z 16012KT 18/02 A2995 RMK A01 T01830024  RH  034%=      5-min Rain = 0
KES1 162043Z 17011KT 18/02 A2995 RMK A01 T01830024  RH  035%=      5-min Rain = 0
KES1 162044Z 16011KT 18/02 A2995 RMK A01 T01830024  RH  035%=      5-min Rain = 0
KES1 162045Z 16010KT 18/02 A2995 RMK A01 T01830024  RH  035%=      5-min Rain = 0
KES1 162046Z 17009KT 18/02 A2995 RMK A01 T01830024  RH  035%=      5-min Rain = 0
KES1 162047Z 17011KT 18/02 A2995 RMK A01 T01830024  RH  034%=      5-min Rain = 0
KES1 162048Z 16011KT 18/02 A2995 RMK A01 T01840024  RH  034%=      5-min Rain = 0
KES1 162049Z 15013KT 18/03 A2995 RMK A01 T01830025  RH  035%=      5-min Rain = 0
KES1 162050Z 16012KT 18/03 A2995 RMK A01 T01830025  RH  035%=      5-min Rain = 0
KES1 162051Z 16013KT 18/03 A2995 RMK A01 T01820025  RH  035%=      5-min Rain = 0
KES1 162052Z 17010KT 18/03 A2995 RMK A01 T01820025  RH  035%=      5-min Rain = 0
KES1 162053Z 16009KT 18/03 A2995 RMK A01 T01820026  RH  035%=      5-min Rain = 0
KES1 162054Z 16013KT 18/03 A2995 RMK A01 T01820026  RH  035%=      5-min Rain = 0
KES1 162055Z 15011KT 18/03 A2995 RMK A01 T01820025  RH  035%=      5-min Rain = 0
KES1 162056Z 16012KT 18/03 A2995 RMK A01 T01820025  RH  035%=      5-min Rain = 0
KES1 162057Z 16013KT 18/03 A2995 RMK A01 T01820025  RH  035%=      5-min Rain = 0
KES1 162058Z 16011KT 18/03 A2996 RMK A01 T01830025  RH  035%=      5-min Rain = 0
KES1 162059Z 16009KT 18/03 A2996 RMK A01 T01820026  RH  035%=      5-min Rain = 0
KES1 162100Z 15010KT 18/03 A2996 RMK A01 T01830026  RH  035%=      5-min Rain = 0
KES1 162101Z 16012KT 18/03 A2996 RMK A01 T01830026  RH  035%=      5-min Rain = 0
KES1 162102Z 16011KT 18/03 A2996 RMK A01 T01830026  RH  035%=      5-min Rain = 0
KES1 162103Z 16012G17KT 18/03 A2996 RMK A01 T01830027  RH  035%=      5-min Rain = 0
KES1 162104Z 16010KT 18/03 A2996 RMK A01 T01830027  RH  035%=      5-min Rain = 0
KES1 162105Z 16008KT 18/03 A2996 RMK A01 T01830027  RH  035%=      5-min Rain = 0
KES1 162106Z 16013KT 18/03 A2996 RMK A01 T01830027  RH  035%=      5-min Rain = 0
KES1 162107Z 17011KT 18/03 A2995 RMK A01 T01830027  RH  035%=      5-min Rain = 0
KES1 162108Z 16011KT 18/03 A2995 RMK A01 T01820027  RH  035%=      5-min Rain = 0
KES1 162109Z 16014G19KT 18/03 A2995 RMK A01 T01820027  RH  035%=      5-min Rain = 0
KES1 162110Z 15012KT 18/03 A2995 RMK A01 T01830027  RH  035%=      5-min Rain = 0
KES1 162111Z 16012KT 18/03 A2995 RMK A01 T01830027  RH  035%=      5-min Rain = 0
KES1 162112Z 17013KT 18/03 A2995 RMK A01 T01830028  RH  035%=      5-min Rain = 0
KES1 162113Z 16013KT 18/03 A2995 RMK A01 T01830028  RH  035%=      5-min Rain = 0
KES1 162114Z 17011KT 18/03 A2995 RMK A01 T01840028  RH  035%=      5-min Rain = 0
KES1 162115Z 17011KT 18/03 A2995 RMK A01 T01840028  RH  035%=      5-min Rain = 0
KES1 162116Z 16011KT 19/03 A2995 RMK A01 T01850028  RH  035%=      5-min Rain = 0
KES1 162117Z 16010KT 19/03 A2995 RMK A01 T01860028  RH  035%=      5-min Rain = 0
KES1 162118Z 15011KT 19/03 A2995 RMK A01 T01860029  RH  035%=      5-min Rain = 0
KES1 162119Z 17013KT 19/03 A2995 RMK A01 T01870028  RH  035%=      5-min Rain = 0
KES1 162120Z 17012KT 19/03 A2995 RMK A01 T01870028  RH  035%=      5-min Rain = 0
KES1 162121Z 17012KT 19/03 A2995 RMK A01 T01870028  RH  035%=      5-min Rain = 0
KES1 162122Z 18014KT 19/03 A2995 RMK A01 T01860028  RH  035%=      5-min Rain = 0
KES1 162123Z 17011KT 19/03 A2995 RMK A01 T01860028  RH  035%=      5-min Rain = 0
KES1 162124Z 18009KT 19/03 A2995 RMK A01 T01860029  RH  035%=      5-min Rain = 0
KES1 162125Z 17013KT 19/03 A2995 RMK A01 T01870029  RH  035%=      5-min Rain = 0
KES1 162126Z 16011KT 19/03 A2995 RMK A01 T01880029  RH  035%=      5-min Rain = 0
KES1 162127Z 17012KT 19/03 A2995 RMK A01 T01890029  RH  035%=      5-min Rain = 0
KES1 162128Z 17012KT 19/03 A2995 RMK A01 T01890029  RH  034%=      5-min Rain = 0
KES1 162129Z 17012KT 19/03 A2994 RMK A01 T01890029  RH  034%=      5-min Rain = 0
KES1 162130Z 17012KT 19/03 A2994 RMK A01 T01890028  RH  034%=      5-min Rain = 0
KES1 162131Z 16010KT 19/03 A2994 RMK A01 T01890029  RH  034%=      5-min Rain = 0
KES1 162132Z 16009KT 19/03 A2994 RMK A01 T01900030  RH  034%=      5-min Rain = 0
KES1 162133Z 17013KT 19/03 A2994 RMK A01 T01910029  RH  034%=      5-min Rain = 0
KES1 162134Z 17012KT 19/03 A2994 RMK A01 T01910029  RH  034%=      5-min Rain = 0
KES1 162135Z 16013G18KT 19/03 A2994 RMK A01 T01910029  RH  034%=      5-min Rain = 0
KES1 162136Z 17011KT 19/03 A2995 RMK A01 T01910029  RH  034%=      5-min Rain = 0
KES1 162137Z 17013KT 19/03 A2994 RMK A01 T01910029  RH  034%=      5-min Rain = 0
KES1 162138Z 17014G19KT 19/03 A2994 RMK A01 T01910029  RH  034%=      5-min Rain = 0
KES1 162139Z 17011KT 19/03 A2994 RMK A01 T01910029  RH  034%=      5-min Rain = 0
KES1 162140Z 16014KT 19/03 A2994 RMK A01 T01910029  RH  034%=      5-min Rain = 0
KES1 162141Z 17011KT 19/03 A2994 RMK A01 T01910029  RH  034%=      5-min Rain = 0
KES1 162142Z 17011G18KT 19/03 A2994 RMK A01 T01910029  RH  034%=      5-min Rain = 0
KES1 162143Z 17016KT 19/03 A2994 RMK A01 T01920029  RH  034%=      5-min Rain = 0
KES1 162144Z 16016KT 19/03 A2994 RMK A01 T01920029  RH  034%=      5-min Rain = 0
KES1 162145Z 16013KT 19/03 A2994 RMK A01 T01920029  RH  034%=      5-min Rain = 0
KES1 162146Z 16015KT 19/03 A2994 RMK A01 T01930030  RH  034%=      5-min Rain = 0
KES1 162147Z 16013KT 19/03 A2994 RMK A01 T01930030  RH  034%=      5-min Rain = 0
KES1 162148Z 16013KT 19/03 A2994 RMK A01 T01930030  RH  034%=      5-min Rain = 0
KES1 162149Z 16012KT 19/03 A2994 RMK A01 T01930030  RH  034%=      5-min Rain = 0
KES1 162150Z 16013KT 19/03 A2994 RMK A01 T01930030  RH  034%=      5-min Rain = 0
KES1 162151Z 16011KT 19/03 A2994 RMK A01 T01930031  RH  034%=      5-min Rain = 0
KES1 162152Z 16010KT 19/03 A2994 RMK A01 T01930030  RH  034%=      5-min Rain = 0
KES1 162153Z 17010KT 19/03 A2994 RMK A01 T01940030  RH  034%=      5-min Rain = 0
KES1 162154Z 17011KT 19/03 A2994 RMK A01 T01940031  RH  034%=      5-min Rain = 0
KES1 162155Z 17010KT 19/03 A2994 RMK A01 T01940030  RH  034%=      5-min Rain = 0
KES1 162156Z 15014KT 20/03 A2994 RMK A01 T01950030  RH  033%=      5-min Rain = 0
KES1 162157Z 15013G18KT 20/03 A2994 RMK A01 T01950029  RH  033%=      5-min Rain = 0
KES1 162158Z 15013KT 20/03 A2994 RMK A01 T01950029  RH  033%=      5-min Rain = 0
KES1 162159Z 15012KT 20/03 A2994 RMK A01 T01950029  RH  033%=      5-min Rain = 0
KES1 162200Z 15013KT 19/03 A2994 RMK A01 T01940028  RH  033%=      5-min Rain = 0
KES1 162201Z 14014KT 20/03 A2994 RMK A01 T01950028  RH  033%=      5-min Rain = 0
KES1 162202Z 16014KT 20/03 A2994 RMK A01 T01950028  RH  033%=      5-min Rain = 0
KES1 162203Z 15016KT 19/03 A2994 RMK A01 T01940027  RH  033%=      5-min Rain = 0
KES1 162204Z 15013KT 19/03 A2994 RMK A01 T01940028  RH  033%=      5-min Rain = 0
KES1 162205Z 16013KT 19/03 A2994 RMK A01 T01940028  RH  033%=      5-min Rain = 0
KES1 162206Z 15011KT 19/03 A2994 RMK A01 T01940028  RH  033%=      5-min Rain = 0
KES1 162207Z 16013KT 20/03 A2994 RMK A01 T01950028  RH  033%=      5-min Rain = 0
KES1 162208Z 16012KT 20/03 A2994 RMK A01 T01950028  RH  033%=      5-min Rain = 0
KES1 162209Z 16011KT 20/03 A2994 RMK A01 T01950028  RH  033%=      5-min Rain = 0
KES1 162210Z 16014G19KT 20/03 A2994 RMK A01 T01960028  RH  033%=      5-min Rain = 0
KES1 162211Z 16010G15KT 20/03 A2994 RMK A01 T01960028  RH  033%=      5-min Rain = 0
KES1 162212Z 16015G20KT 20/03 A2994 RMK A01 T01970028  RH  033%=      5-min Rain = 0
KES1 162213Z 16013KT 20/03 A2994 RMK A01 T01970028  RH  032%=      5-min Rain = 0
KES1 162214Z 17014KT 20/03 A2994 RMK A01 T01980028  RH  032%=      5-min Rain = 0
KES1 162215Z 16013KT 20/03 A2994 RMK A01 T01980027  RH  032%=      5-min Rain = 0
KES1 162216Z 16014KT 20/03 A2994 RMK A01 T01990027  RH  032%=      5-min Rain = 0
KES1 162217Z 15015KT 20/03 A2994 RMK A01 T01980027  RH  032%=      5-min Rain = 0
KES1 162218Z 16015KT 20/03 A2994 RMK A01 T01970027  RH  032%=      5-min Rain = 0
KES1 162219Z 16016KT 20/03 A2994 RMK A01 T01960027  RH  032%=      5-min Rain = 0
KES1 162220Z 16017KT 20/03 A2994 RMK A01 T01960027  RH  032%=      5-min Rain = 0
KES1 162221Z 16017KT 20/03 A2994 RMK A01 T01960027  RH  033%=      5-min Rain = 0
KES1 162222Z 16015KT 20/03 A2994 RMK A01 T01950027  RH  033%=      5-min Rain = 0
KES1 162223Z 16011KT 19/03 A2994 RMK A01 T01940028  RH  033%=      5-min Rain = 0
KES1 162224Z 16016KT 19/03 A2994 RMK A01 T01940028  RH  033%=      5-min Rain = 0
KES1 162225Z 17010KT 19/03 A2994 RMK A01 T01940028  RH  033%=      5-min Rain = 0
KES1 162226Z 16014G20KT 19/03 A2994 RMK A01 T01930028  RH  033%=      5-min Rain = 0
KES1 162227Z 17013KT 19/03 A2994 RMK A01 T01930028  RH  033%=      5-min Rain = 0
KES1 162228Z 17011KT 19/03 A2994 RMK A01 T01930028  RH  033%=      5-min Rain = 0
KES1 162229Z 17008KT 19/03 A2994 RMK A01 T01930028  RH  033%=      5-min Rain = 0
KES1 162230Z 17014KT 19/03 A2994 RMK A01 T01940028  RH  033%=      5-min Rain = 0
KES1 162231Z 17014G19KT 19/03 A2994 RMK A01 T01940028  RH  033%=      5-min Rain = 0
KES1 162232Z 17015KT 19/03 A2994 RMK A01 T01940028  RH  033%=      5-min Rain = 0
KES1 162233Z 17014KT 19/03 A2994 RMK A01 T01940029  RH  033%=      5-min Rain = 0
KES1 162234Z 17011KT 19/03 A2994 RMK A01 T01940028  RH  033%=      5-min Rain = 0
KES1 162235Z 18012KT 20/03 A2994 RMK A01 T01950029  RH  033%=      5-min Rain = 0
KES1 162236Z 16012KT 20/03 A2994 RMK A01 T01960029  RH  033%=      5-min Rain = 0
KES1 162237Z 16010KT 20/03 A2994 RMK A01 T01960029  RH  033%=      5-min Rain = 0
KES1 162238Z 16009KT 20/03 A2994 RMK A01 T01960029  RH  033%=      5-min Rain = 0
KES1 162239Z 16009KT 20/03 A2994 RMK A01 T01960030  RH  033%=      5-min Rain = 0
KES1 162240Z 16010KT 20/03 A2994 RMK A01 T01960030  RH  033%=      5-min Rain = 0
KES1 162241Z 16014KT 20/03 A2994 RMK A01 T01960030  RH  033%=      5-min Rain = 0
KES1 162242Z 16012KT 20/03 A2994 RMK A01 T01960030  RH  033%=      5-min Rain = 0
KES1 162243Z 16011KT 20/03 A2994 RMK A01 T01950030  RH  033%=      5-min Rain = 0
KES1 162244Z 15013KT 20/03 A2994 RMK A01 T01950030  RH  033%=      5-min Rain = 0
KES1 162245Z 15011G16KT 19/03 A2994 RMK A01 T01940029  RH  033%=      5-min Rain = 0
KES1 162246Z 16011G16KT 19/03 A2994 RMK A01 T01940030  RH  034%=      5-min Rain = 0
KES1 162247Z 16015KT 19/03 A2993 RMK A01 T01940030  RH  034%=      5-min Rain = 0
KES1 162248Z 16012KT 19/03 A2993 RMK A01 T01930029  RH  034%=      5-min Rain = 0
KES1 162249Z 16014KT 19/03 A2993 RMK A01 T01920030  RH  034%=      5-min Rain = 0
KES1 162250Z 15013KT 19/03 A2993 RMK A01 T01920030  RH  034%=      5-min Rain = 0
KES1 162251Z 16013G19KT 19/03 A2993 RMK A01 T01920030  RH  034%=      5-min Rain = 0
KES1 162252Z 16014KT 19/03 A2993 RMK A01 T01910030  RH  034%=      5-min Rain = 0
KES1 162253Z 17013KT 19/03 A2993 RMK A01 T01910029  RH  034%=      5-min Rain = 0
KES1 162254Z 16011KT 19/03 A2993 RMK A01 T01910030  RH  034%=      5-min Rain = 0
KES1 162255Z 16012KT 19/03 A2993 RMK A01 T01910030  RH  034%=      5-min Rain = 0
KES1 162256Z 16009KT 19/03 A2994 RMK A01 T01900030  RH  035%=      5-min Rain = 0
KES1 162257Z 16011KT 19/03 A2993 RMK A01 T01890030  RH  035%=      5-min Rain = 0
KES1 162258Z 16012KT 19/03 A2994 RMK A01 T01880030  RH  035%=      5-min Rain = 0
KES1 162259Z 16010G16KT 19/03 A2994 RMK A01 T01880030  RH  035%=      5-min Rain = 0
KES1 162300Z 16014KT 19/03 A2994 RMK A01 T01870029  RH  035%=      5-min Rain = 0
KES1 162301Z 16011KT 19/03 A2994 RMK A01 T01870030  RH  035%=      5-min Rain = 0
KES1 162302Z 16011KT 19/03 A2994 RMK A01 T01860030  RH  035%=      5-min Rain = 0
KES1 162303Z 16011KT 19/03 A2994 RMK A01 T01850030  RH  035%=      5-min Rain = 0
KES1 162304Z 16012KT 18/03 A2994 RMK A01 T01840029  RH  036%=      5-min Rain = 0
KES1 162305Z 16014KT 18/03 A2994 RMK A01 T01830030  RH  036%=      5-min Rain = 0
KES1 162306Z 16015KT 18/03 A2994 RMK A01 T01830031  RH  036%=      5-min Rain = 0
KES1 162307Z 16012KT 18/03 A2994 RMK A01 T01830032  RH  036%=      5-min Rain = 0
KES1 162308Z 16013KT 18/03 A2994 RMK A01 T01830032  RH  037%=      5-min Rain = 0
KES1 162309Z 16012KT 18/03 A2994 RMK A01 T01820032  RH  037%=      5-min Rain = 0
KES1 162310Z 16013KT 18/03 A2994 RMK A01 T01820032  RH  037%=      5-min Rain = 0
KES1 162311Z 16011KT 18/03 A2994 RMK A01 T01810032  RH  037%=      5-min Rain = 0
KES1 162312Z 16014KT 18/03 A2994 RMK A01 T01800032  RH  037%=      5-min Rain = 0
KES1 162313Z 16012KT 18/03 A2994 RMK A01 T01800033  RH  038%=      5-min Rain = 0
KES1 162314Z 16013KT 18/03 A2994 RMK A01 T01790033  RH  038%=      5-min Rain = 0
KES1 162315Z 16011KT 18/03 A2994 RMK A01 T01790033  RH  038%=      5-min Rain = 0
KES1 162316Z 16010KT 18/03 A2994 RMK A01 T01780033  RH  038%=      5-min Rain = 0
KES1 162317Z 16011KT 18/03 A2994 RMK A01 T01770033  RH  038%=      5-min Rain = 0
KES1 162318Z 16013KT 18/03 A2994 RMK A01 T01770033  RH  038%=      5-min Rain = 0
KES1 162319Z 16013KT 18/03 A2994 RMK A01 T01760033  RH  038%=      5-min Rain = 0
KES1 162320Z 16013KT 18/03 A2994 RMK A01 T01770033  RH  038%=      5-min Rain = 0
KES1 162321Z 16013G18KT 18/03 A2994 RMK A01 T01760033  RH  039%=      5-min Rain = 0
KES1 162322Z 16011G16KT 18/03 A2994 RMK A01 T01750033  RH  039%=      5-min Rain = 0
KES1 162323Z 16013KT 18/03 A2994 RMK A01 T01750033  RH  039%=      5-min Rain = 0
KES1 162324Z 16012G17KT 18/03 A2994 RMK A01 T01750033  RH  039%=      5-min Rain = 0
KES1 162325Z 16013KT 17/03 A2994 RMK A01 T01740033  RH  039%=      5-min Rain = 0
KES1 162326Z 16014KT 17/03 A2994 RMK A01 T01740033  RH  039%=      5-min Rain = 0
KES1 162327Z 16014KT 17/03 A2994 RMK A01 T01740033  RH  039%=      5-min Rain = 0
KES1 162328Z 16012KT 17/03 A2994 RMK A01 T01740033  RH  039%=      5-min Rain = 0
KES1 162329Z 16012KT 17/03 A2994 RMK A01 T01730033  RH  039%=      5-min Rain = 0
KES1 162330Z 16011KT 17/03 A2994 RMK A01 T01720033  RH  039%=      5-min Rain = 0
KES1 162331Z 16013KT 17/03 A2994 RMK A01 T01710033  RH  040%=      5-min Rain = 0
KES1 162332Z 16011KT 17/03 A2994 RMK A01 T01710032  RH  040%=      5-min Rain = 0
KES1 162333Z 16010KT 17/03 A2994 RMK A01 T01700032  RH  040%=      5-min Rain = 0
KES1 162334Z 16010KT 17/03 A2994 RMK A01 T01690032  RH  040%=      5-min Rain = 0
KES1 162335Z 16009KT 17/03 A2994 RMK A01 T01690032  RH  040%=      5-min Rain = 0
KES1 162336Z 16010G15KT 17/03 A2994 RMK A01 T01680032  RH  040%=      5-min Rain = 0
KES1 162337Z 16012KT 17/03 A2994 RMK A01 T01670032  RH  040%=      5-min Rain = 0
KES1 162338Z 15010KT 17/03 A2994 RMK A01 T01670032  RH  041%=      5-min Rain = 0
KES1 162339Z 16011KT 17/03 A2994 RMK A01 T01670033  RH  041%=      5-min Rain = 0
KES1 162340Z 16010KT 17/03 A2994 RMK A01 T01670033  RH  041%=      5-min Rain = 0
KES1 162341Z 15011KT 17/03 A2994 RMK A01 T01660033  RH  041%=      5-min Rain = 0
KES1 162342Z 16009KT 17/03 A2994 RMK A01 T01660033  RH  041%=      5-min Rain = 0
KES1 162343Z 15010KT 17/03 A2994 RMK A01 T01650032  RH  041%=      5-min Rain = 0
KES1 162344Z 16009KT 17/03 A2994 RMK A01 T01650033  RH  041%=      5-min Rain = 0
KES1 162345Z 16010KT 16/03 A2994 RMK A01 T01640033  RH  041%=      5-min Rain = 0
KES1 162346Z 16010KT 16/03 A2994 RMK A01 T01640033  RH  042%=      5-min Rain = 0
KES1 162347Z 16010KT 16/03 A2994 RMK A01 T01630033  RH  042%=      5-min Rain = 0
KES1 162348Z 16011KT 16/03 A2994 RMK A01 T01630033  RH  042%=      5-min Rain = 0
KES1 162349Z 16010KT 16/03 A2994 RMK A01 T01630033  RH  042%=      5-min Rain = 0
KES1 162350Z 16011KT 16/03 A2994 RMK A01 T01620033  RH  042%=      5-min Rain = 0
KES1 162351Z 16009KT 16/03 A2994 RMK A01 T01620033  RH  042%=      5-min Rain = 0
KES1 162352Z 15010KT 16/03 A2994 RMK A01 T01620034  RH  042%=      5-min Rain = 0
KES1 162353Z 16011KT 16/03 A2994 RMK A01 T01610033  RH  042%=      5-min Rain = 0
KES1 162354Z 15011KT 16/03 A2994 RMK A01 T01620034  RH  042%=      5-min Rain = 0
KES1 162355Z 15011KT 16/03 A2994 RMK A01 T01610034  RH  042%=      5-min Rain = 0
KES1 162356Z 15011KT 16/03 A2994 RMK A01 T01610034  RH  042%=      5-min Rain = 0
KES1 162357Z 16011KT 16/03 A2994 RMK A01 T01610033  RH  043%=      5-min Rain = 0
KES1 162358Z 16010KT 16/03 A2994 RMK A01 T01610034  RH  043%=      5-min Rain = 0
KES1 162359Z 16010KT 16/03 A2994 RMK A01 T01610034  RH  043%=      5-min Rain = 0
KES1 170000Z 16011G16KT 16/03 A2994 RMK A01 T01600033  RH  043%=      5-min Rain = 0
KES1 170001Z 16011KT 16/03 A2994 RMK A01 T01600033  RH  043%=      5-min Rain = 0
KES1 170002Z 16010KT 16/03 A2994 RMK A01 T01600033  RH  043%=      5-min Rain = 0
KES1 170003Z 16010KT 16/03 A2994 RMK A01 T01600033  RH  043%=      5-min Rain = 0
KES1 170004Z 16013KT 16/03 A2994 RMK A01 T01600034  RH  043%=      5-min Rain = 0
KES1 170005Z 16011KT 16/03 A2994 RMK A01 T01610034  RH  043%=      5-min Rain = 0
KES1 170006Z 16010KT 16/03 A2994 RMK A01 T01610034  RH  043%=      5-min Rain = 0
KES1 170007Z 16010KT 16/03 A2994 RMK A01 T01610034  RH  043%=      5-min Rain = 0
KES1 170008Z 16010KT 16/03 A2994 RMK A01 T01610034  RH  043%=      5-min Rain = 0
KES1 170009Z 16009KT 16/03 A2994 RMK A01 T01610034  RH  043%=      5-min Rain = 0
KES1 170010Z 16010KT 16/03 A2994 RMK A01 T01610034  RH  043%=      5-min Rain = 0
KES1 170011Z 16010KT 16/03 A2994 RMK A01 T01610034  RH  043%=      5-min Rain = 0
KES1 170012Z 16012KT 16/03 A2994 RMK A01 T01610034  RH  043%=      5-min Rain = 0
KES1 170013Z 16011KT 16/03 A2994 RMK A01 T01610034  RH  043%=      5-min Rain = 0
KES1 170014Z 16011KT 16/03 A2995 RMK A01 T01610034  RH  043%=      5-min Rain = 0
KES1 170015Z 16010G15KT 16/03 A2995 RMK A01 T01610034  RH  043%=      5-min Rain = 0
KES1 170016Z 16010KT 16/03 A2995 RMK A01 T01610034  RH  043%=      5-min Rain = 0
KES1 170017Z 16009KT 16/03 A2995 RMK A01 T01610034  RH  043%=      5-min Rain = 0
KES1 170018Z 16011KT 16/04 A2995 RMK A01 T01610035  RH  043%=      5-min Rain = 0
KES1 170019Z 16009KT 16/04 A2995 RMK A01 T01610035  RH  043%=      5-min Rain = 0
KES1 170020Z 16009KT 16/04 A2995 RMK A01 T01610035  RH  043%=      5-min Rain = 0
KES1 170021Z 16010KT 16/04 A2995 RMK A01 T01610035  RH  043%=      5-min Rain = 0
KES1 170022Z 16009KT 16/04 A2995 RMK A01 T01610036  RH  043%=      5-min Rain = 0
KES1 170023Z 16009KT 16/04 A2995 RMK A01 T01610035  RH  043%=      5-min Rain = 0
KES1 170024Z 17009KT 16/04 A2995 RMK A01 T01610036  RH  043%=      5-min Rain = 0
KES1 170025Z 17008KT 16/04 A2995 RMK A01 T01610035  RH  043%=      5-min Rain = 0
KES1 170026Z 17008KT 16/04 A2995 RMK A01 T01610036  RH  043%=      5-min Rain = 0
KES1 170027Z 16010KT 16/04 A2995 RMK A01 T01610036  RH  043%=      5-min Rain = 0
KES1 170028Z 16008KT 16/04 A2995 RMK A01 T01600036  RH  043%=      5-min Rain = 0
KES1 170029Z 16008KT 16/04 A2995 RMK A01 T01600036  RH  043%=      5-min Rain = 0
KES1 170030Z 15007KT 16/04 A2995 RMK A01 T01600036  RH  044%=      5-min Rain = 0
KES1 170031Z 15007KT 16/04 A2995 RMK A01 T01590036  RH  044%=      5-min Rain = 0
KES1 170032Z 16006KT 16/04 A2995 RMK A01 T01580035  RH  044%=      5-min Rain = 0
KES1 170033Z 16007KT 16/04 A2995 RMK A01 T01580036  RH  044%=      5-min Rain = 0
KES1 170034Z 15007KT 16/04 A2995 RMK A01 T01570035  RH  044%=      5-min Rain = 0
KES1 170035Z 15007KT 16/04 A2995 RMK A01 T01570035  RH  044%=      5-min Rain = 0
KES1 170036Z 15006KT 16/04 A2995 RMK A01 T01570035  RH  044%=      5-min Rain = 0
KES1 170037Z 15006KT 16/04 A2995 RMK A01 T01560035  RH  044%=      5-min Rain = 0
KES1 170038Z 15006KT 16/04 A2995 RMK A01 T01550035  RH  045%=      5-min Rain = 0
KES1 170039Z 15005KT 16/04 A2995 RMK A01 T01550035  RH  045%=      5-min Rain = 0
KES1 170040Z 16006KT 15/04 A2995 RMK A01 T01540035  RH  045%=      5-min Rain = 0
KES1 170041Z 16007KT 15/04 A2995 RMK A01 T01540036  RH  045%=      5-min Rain = 0
KES1 170042Z 15006KT 15/04 A2995 RMK A01 T01540036  RH  045%=      5-min Rain = 0
KES1 170043Z 15005KT 15/04 A2995 RMK A01 T01540035  RH  045%=      5-min Rain = 0
KES1 170044Z 15006KT 15/04 A2995 RMK A01 T01540035  RH  045%=      5-min Rain = 0
KES1 170045Z 15004KT 15/04 A2995 RMK A01 T01530036  RH  045%=      5-min Rain = 0
KES1 170046Z 15006KT 15/04 A2995 RMK A01 T01530035  RH  045%=      5-min Rain = 0
KES1 170047Z 15005KT 15/04 A2995 RMK A01 T01520036  RH  046%=      5-min Rain = 0
KES1 170048Z 15006KT 15/04 A2995 RMK A01 T01520035  RH  046%=      5-min Rain = 0
KES1 170049Z 15006KT 15/04 A2995 RMK A01 T01520036  RH  046%=      5-min Rain = 0
KES1 170050Z 15006KT 15/04 A2995 RMK A01 T01510036  RH  046%=      5-min Rain = 0
KES1 170051Z 15006KT 15/04 A2995 RMK A01 T01510036  RH  046%=      5-min Rain = 0
KES1 170052Z 14006KT 15/04 A2995 RMK A01 T01510036  RH  046%=      5-min Rain = 0
KES1 170053Z 15006KT 15/04 A2995 RMK A01 T01500035  RH  046%=      5-min Rain = 0
KES1 170054Z 15006KT 15/04 A2995 RMK A01 T01500036  RH  046%=      5-min Rain = 0
KES1 170055Z 15007KT 15/04 A2995 RMK A01 T01490036  RH  047%=      5-min Rain = 0
KES1 170056Z 15006KT 15/04 A2995 RMK A01 T01480036  RH  047%=      5-min Rain = 0
KES1 170057Z 15007KT 15/04 A2995 RMK A01 T01480036  RH  047%=      5-min Rain = 0
KES1 170058Z 15006KT 15/04 A2996 RMK A01 T01480036  RH  047%=      5-min Rain = 0
KES1 170059Z 15006KT 15/04 A2996 RMK A01 T01490036  RH  047%=      5-min Rain = 0
KES1 170100Z 15006KT 15/04 A2996 RMK A01 T01490037  RH  047%=      5-min Rain = 0
KES1 170101Z 15006KT 15/04 A2996 RMK A01 T01480037  RH  047%=      5-min Rain = 0
KES1 170102Z 15006KT 15/04 A2996 RMK A01 T01480036  RH  047%=      5-min Rain = 0
KES1 170103Z 16006KT 15/04 A2996 RMK A01 T01470036  RH  047%=      5-min Rain = 0
KES1 170104Z 15006KT 15/04 A2996 RMK A01 T01470037  RH  047%=      5-min Rain = 0
KES1 170105Z 16005KT 15/04 A2996 RMK A01 T01470037  RH  048%=      5-min Rain = 0
KES1 170106Z 15007KT 15/04 A2996 RMK A01 T01470037  RH  048%=      5-min Rain = 0
KES1 170107Z 15006KT 15/04 A2996 RMK A01 T01460037  RH  048%=      5-min Rain = 0
KES1 170108Z 15006KT 15/04 A2996 RMK A01 T01450037  RH  048%=      5-min Rain = 0
KES1 170109Z 16006KT 15/04 A2996 RMK A01 T01450037  RH  048%=      5-min Rain = 0
KES1 170110Z 15007KT 15/04 A2996 RMK A01 T01450037  RH  048%=      5-min Rain = 0
KES1 170111Z 16007KT 15/04 A2996 RMK A01 T01450038  RH  048%=      5-min Rain = 0
KES1 170112Z 16006KT 15/04 A2996 RMK A01 T01450038  RH  048%=      5-min Rain = 0
KES1 170113Z 16006KT 15/04 A2996 RMK A01 T01450038  RH  049%=      5-min Rain = 0
KES1 170114Z 16006KT 15/04 A2996 RMK A01 T01450038  RH  049%=      5-min Rain = 0
KES1 170115Z 16007KT 15/04 A2996 RMK A01 T01450038  RH  049%=      5-min Rain = 0
KES1 170116Z 16007KT 14/04 A2996 RMK A01 T01440038  RH  049%=      5-min Rain = 0
KES1 170117Z 16008KT 14/04 A2996 RMK A01 T01440039  RH  049%=      5-min Rain = 0
KES1 170118Z 16007KT 14/04 A2996 RMK A01 T01440039  RH  049%=      5-min Rain = 0
KES1 170119Z 16007KT 15/04 A2996 RMK A01 T01450039  RH  049%=      5-min Rain = 0
KES1 170120Z 16007KT 14/04 A2996 RMK A01 T01440039  RH  049%=      5-min Rain = 0
KES1 170121Z 16006KT 14/04 A2996 RMK A01 T01440039  RH  049%=      5-min Rain = 0
KES1 170122Z 16007KT 14/04 A2996 RMK A01 T01440039  RH  049%=      5-min Rain = 0
KES1 170123Z 16007KT 14/04 A2996 RMK A01 T01440039  RH  049%=      5-min Rain = 0
KES1 170124Z 16008KT 14/04 A2996 RMK A01 T01430039  RH  050%=      5-min Rain = 0
KES1 170125Z 16006KT 14/04 A2996 RMK A01 T01430040  RH  050%=      5-min Rain = 0
KES1 170126Z 16007KT 14/04 A2996 RMK A01 T01430039  RH  050%=      5-min Rain = 0
KES1 170127Z 16007KT 14/04 A2996 RMK A01 T01430040  RH  050%=      5-min Rain = 0
KES1 170128Z 16007KT 14/04 A2996 RMK A01 T01420040  RH  050%=      5-min Rain = 0
KES1 170129Z 16006KT 14/04 A2996 RMK A01 T01420039  RH  050%=      5-min Rain = 0
KES1 170130Z 16006KT 14/04 A2996 RMK A01 T01410039  RH  050%=      5-min Rain = 0
KES1 170131Z 16006KT 14/04 A2996 RMK A01 T01410040  RH  051%=      5-min Rain = 0
KES1 170132Z 16006KT 14/04 A2996 RMK A01 T01410040  RH  051%=      5-min Rain = 0
KES1 170133Z 16006KT 14/04 A2996 RMK A01 T01400040  RH  051%=      5-min Rain = 0
KES1 170134Z 16006KT 14/04 A2996 RMK A01 T01400040  RH  051%=      5-min Rain = 0
KES1 170135Z 15005KT 14/04 A2996 RMK A01 T01400040  RH  051%=      5-min Rain = 0
KES1 170136Z 16006KT 14/04 A2996 RMK A01 T01390040  RH  051%=      5-min Rain = 0
KES1 170137Z 16005KT 14/04 A2996 RMK A01 T01380039  RH  051%=      5-min Rain = 0
KES1 170138Z 16005KT 14/04 A2996 RMK A01 T01380039  RH  051%=      5-min Rain = 0
KES1 170139Z 16006KT 14/04 A2996 RMK A01 T01370039  RH  052%=      5-min Rain = 0
KES1 170140Z 15005KT 14/04 A2996 RMK A01 T01370040  RH  052%=      5-min Rain = 0
KES1 170141Z 15006KT 14/04 A2996 RMK A01 T01360039  RH  052%=      5-min Rain = 0
KES1 170142Z 15006KT 14/04 A2996 RMK A01 T01350040  RH  052%=      5-min Rain = 0
KES1 170143Z 16007KT 14/04 A2996 RMK A01 T01350040  RH  052%=      5-min Rain = 0
KES1 170144Z 16007KT 14/04 A2996 RMK A01 T01350040  RH  053%=      5-min Rain = 0
KES1 170145Z 16006KT 14/04 A2996 RMK A01 T01350040  RH  053%=      5-min Rain = 0
KES1 170146Z 16007KT 14/04 A2996 RMK A01 T01350040  RH  053%=      5-min Rain = 0
KES1 170147Z 16007KT 14/04 A2996 RMK A01 T01350040  RH  053%=      5-min Rain = 0
KES1 170148Z 16007KT 14/04 A2996 RMK A01 T01350041  RH  053%=      5-min Rain = 0
KES1 170149Z 15007KT 14/04 A2996 RMK A01 T01350040  RH  053%=      5-min Rain = 0
KES1 170150Z 15007KT 14/04 A2996 RMK A01 T01350040  RH  053%=      5-min Rain = 0
KES1 170151Z 16007KT 13/04 A2996 RMK A01 T01340040  RH  053%=      5-min Rain = 0
KES1 170152Z 15006KT 13/04 A2996 RMK A01 T01340041  RH  053%=      5-min Rain = 0
KES1 170153Z 16006KT 13/04 A2996 RMK A01 T01340040  RH  053%=      5-min Rain = 0
KES1 170154Z 16007KT 13/04 A2996 RMK A01 T01340040  RH  053%=      5-min Rain = 0
KES1 170155Z 16006KT 13/04 A2996 RMK A01 T01330041  RH  053%=      5-min Rain = 0
KES1 170156Z 16007KT 13/04 A2996 RMK A01 T01330040  RH  053%=      5-min Rain = 0
KES1 170157Z 16006KT 13/04 A2996 RMK A01 T01340041  RH  053%=      5-min Rain = 0
KES1 170158Z 16007KT 13/04 A2996 RMK A01 T01340041  RH  053%=      5-min Rain = 0
KES1 170159Z 16008KT 13/04 A2996 RMK A01 T01330041  RH  053%=      5-min Rain = 0
KES1 170200Z 16008KT 13/04 A2996 RMK A01 T01340041  RH  053%=      5-min Rain = 0
KES1 170201Z 16008KT 13/04 A2996 RMK A01 T01340041  RH  053%=      5-min Rain = 0
KES1 170202Z 16008KT 13/04 A2996 RMK A01 T01340041  RH  053%=      5-min Rain = 0
KES1 170203Z 16008KT 13/04 A2996 RMK A01 T01340041  RH  053%=      5-min Rain = 0
KES1 170204Z 16007KT 13/04 A2996 RMK A01 T01340040  RH  053%=      5-min Rain = 0
KES1 170205Z 16007KT 13/04 A2996 RMK A01 T01340041  RH  053%=      5-min Rain = 0
KES1 170206Z 16006KT 13/04 A2996 RMK A01 T01330041  RH  053%=      5-min Rain = 0
KES1 170207Z 16006KT 13/04 A2996 RMK A01 T01330040  RH  053%=      5-min Rain = 0
KES1 170208Z 16005KT 13/04 A2996 RMK A01 T01330040  RH  054%=      5-min Rain = 0
KES1 170209Z 16006KT 13/04 A2996 RMK A01 T01320040  RH  054%=      5-min Rain = 0
KES1 170210Z 15005KT 13/04 A2996 RMK A01 T01320040  RH  054%=      5-min Rain = 0
KES1 170211Z 14005KT 13/04 A2996 RMK A01 T01310039  RH  054%=      5-min Rain = 0
KES1 170212Z 15005KT 13/04 A2996 RMK A01 T01300039  RH  054%=      5-min Rain = 0
KES1 170213Z 14005KT 13/04 A2996 RMK A01 T01290040  RH  054%=      5-min Rain = 0
KES1 170214Z 15005KT 13/04 A2996 RMK A01 T01280039  RH  055%=      5-min Rain = 0
KES1 170215Z 15005KT 13/04 A2996 RMK A01 T01280039  RH  055%=      5-min Rain = 0
KES1 170216Z 14005KT 13/04 A2996 RMK A01 T01270039  RH  055%=      5-min Rain = 0
KES1 170217Z 14005KT 13/04 A2996 RMK A01 T01270039  RH  055%=      5-min Rain = 0
KES1 170218Z 14005KT 13/04 A2996 RMK A01 T01270039  RH  055%=      5-min Rain = 0
KES1 170219Z 14005KT 13/04 A2996 RMK A01 T01260039  RH  055%=      5-min Rain = 0
KES1 170220Z 14005KT 13/04 A2995 RMK A01 T01260039  RH  055%=      5-min Rain = 0
KES1 170221Z 14006KT 13/04 A2995 RMK A01 T01260039  RH  056%=      5-min Rain = 0
KES1 170222Z 13006KT 13/04 A2995 RMK A01 T01260039  RH  056%=      5-min Rain = 0
KES1 170223Z 13006KT 13/04 A2995 RMK A01 T01260039  RH  056%=      5-min Rain = 0
KES1 170224Z 13006KT 13/04 A2995 RMK A01 T01260039  RH  056%=      5-min Rain = 0
KES1 170225Z 13006KT 13/04 A2995 RMK A01 T01260039  RH  056%=      5-min Rain = 0
KES1 170226Z 13005KT 13/04 A2995 RMK A01 T01260039  RH  056%=      5-min Rain = 0
KES1 170227Z 13005KT 13/04 A2995 RMK A01 T01260039  RH  056%=      5-min Rain = 0
KES1 170228Z 13005KT 13/04 A2995 RMK A01 T01260039  RH  055%=      5-min Rain = 0
KES1 170229Z 13005KT 13/04 A2996 RMK A01 T01250039  RH  056%=      5-min Rain = 0
KES1 170230Z 13006KT 13/04 A2996 RMK A01 T01250039  RH  056%=      5-min Rain = 0
KES1 170231Z 13006KT 13/04 A2996 RMK A01 T01250039  RH  056%=      5-min Rain = 0
KES1 170232Z 14006KT 13/04 A2996 RMK A01 T01250039  RH  056%=      5-min Rain = 0
KES1 170233Z 14006KT 12/04 A2996 RMK A01 T01240039  RH  056%=      5-min Rain = 0
KES1 170234Z 14006KT 12/04 A2996 RMK A01 T01240038  RH  056%=      5-min Rain = 0
KES1 170235Z 14005KT 12/04 A2996 RMK A01 T01240039  RH  056%=      5-min Rain = 0
KES1 170236Z 14006KT 12/04 A2995 RMK A01 T01230038  RH  056%=      5-min Rain = 0
KES1 170237Z 14006KT 12/04 A2995 RMK A01 T01230038  RH  056%=      5-min Rain = 0
KES1 170238Z 14006KT 12/04 A2995 RMK A01 T01230038  RH  056%=      5-min Rain = 0
KES1 170239Z 14006KT 12/04 A2995 RMK A01 T01220038  RH  056%=      5-min Rain = 0
KES1 170240Z 14006KT 12/04 A2995 RMK A01 T01220038  RH  057%=      5-min Rain = 0
KES1 170241Z 14006KT 12/04 A2995 RMK A01 T01220038  RH  057%=      5-min Rain = 0
KES1 170242Z 14006KT 12/04 A2995 RMK A01 T01210038  RH  057%=      5-min Rain = 0
KES1 170243Z 14006KT 12/04 A2995 RMK A01 T01210038  RH  057%=      5-min Rain = 0
KES1 170244Z 14005KT 12/04 A2996 RMK A01 T01210038  RH  057%=      5-min Rain = 0
KES1 170245Z 14005KT 12/04 A2996 RMK A01 T01210038  RH  057%=      5-min Rain = 0
KES1 170246Z 14005KT 12/04 A2996 RMK A01 T01210038  RH  057%=      5-min Rain = 0
KES1 170247Z 13005KT 12/04 A2996 RMK A01 T01210038  RH  057%=      5-min Rain = 0
KES1 170248Z 14004KT 12/04 A2996 RMK A01 T01210038  RH  057%=      5-min Rain = 0
KES1 170249Z 13005KT 12/04 A2996 RMK A01 T01210038  RH  057%=      5-min Rain = 0
KES1 170250Z 13005KT 12/04 A2996 RMK A01 T01210038  RH  057%=      5-min Rain = 0
KES1 170251Z 13004KT 12/04 A2996 RMK A01 T01210038  RH  057%=      5-min Rain = 0
KES1 170252Z 14004KT 12/04 A2996 RMK A01 T01210038  RH  057%=      5-min Rain = 0
KES1 170253Z 13005KT 12/04 A2996 RMK A01 T01210038  RH  057%=      5-min Rain = 0
KES1 170254Z 13004KT 12/04 A2996 RMK A01 T01200038  RH  057%=      5-min Rain = 0
KES1 170255Z 13004KT 12/04 A2996 RMK A01 T01200038  RH  057%=      5-min Rain = 0
KES1 170256Z 13003KT 12/04 A2996 RMK A01 T01200038  RH  057%=      5-min Rain = 0
KES1 170257Z 13003KT 12/04 A2996 RMK A01 T01210038  RH  057%=      5-min Rain = 0
KES1 170258Z 13003KT 12/04 A2996 RMK A01 T01200038  RH  057%=      5-min Rain = 0
KES1 170259Z 13003KT 12/04 A2996 RMK A01 T01210038  RH  057%=      5-min Rain = 0
KES1 170300Z 13003KT 12/04 A2996 RMK A01 T01210038  RH  057%=      5-min Rain = 0
KES1 170301Z 14003KT 12/04 A2996 RMK A01 T01200038  RH  057%=      5-min Rain = 0
KES1 170302Z 14002KT 12/04 A2996 RMK A01 T01200038  RH  057%=      5-min Rain = 0
KES1 170303Z 14003KT 12/04 A2996 RMK A01 T01200038  RH  057%=      5-min Rain = 0
KES1 170304Z 14003KT 12/04 A2996 RMK A01 T01200038  RH  057%=      5-min Rain = 0
KES1 170305Z 15003KT 12/04 A2996 RMK A01 T01200038  RH  057%=      5-min Rain = 0
KES1 170306Z 15003KT 12/04 A2996 RMK A01 T01200038  RH  057%=      5-min Rain = 0
KES1 170307Z 15004KT 12/04 A2996 RMK A01 T01190037  RH  057%=      5-min Rain = 0
KES1 170308Z 15004KT 12/04 A2996 RMK A01 T01190038  RH  058%=      5-min Rain = 0
KES1 170309Z 15004KT 12/04 A2996 RMK A01 T01180037  RH  058%=      5-min Rain = 0
KES1 170310Z 14005KT 12/04 A2996 RMK A01 T01190037  RH  057%=      5-min Rain = 0
KES1 170311Z 14005KT 12/04 A2996 RMK A01 T01190037  RH  057%=      5-min Rain = 0
KES1 170312Z 14005KT 12/04 A2995 RMK A01 T01180037  RH  057%=      5-min Rain = 0
KES1 170313Z 14006KT 12/04 A2995 RMK A01 T01170036  RH  057%=      5-min Rain = 0
KES1 170314Z 14006KT 12/04 A2995 RMK A01 T01160036  RH  058%=      5-min Rain = 0
KES1 170315Z 14006KT 12/04 A2995 RMK A01 T01150035  RH  058%=      5-min Rain = 0
KES1 170316Z 14006KT 11/04 A2995 RMK A01 T01140035  RH  058%=      5-min Rain = 0
KES1 170317Z 14006KT 11/04 A2995 RMK A01 T01130035  RH  059%=      5-min Rain = 0
KES1 170318Z 14005KT 11/04 A2995 RMK A01 T01130036  RH  059%=      5-min Rain = 0
KES1 170319Z 14006KT 11/04 A2995 RMK A01 T01130036  RH  059%=      5-min Rain = 0
KES1 170320Z 13005KT 11/04 A2995 RMK A01 T01140036  RH  059%=      5-min Rain = 0
KES1 170321Z 13005KT 11/04 A2995 RMK A01 T01140035  RH  058%=      5-min Rain = 0
KES1 170322Z 13005KT 11/04 A2995 RMK A01 T01140035  RH  058%=      5-min Rain = 0
KES1 170323Z 14006KT 11/04 A2995 RMK A01 T01140035  RH  058%=      5-min Rain = 0
KES1 170324Z 13006KT 11/04 A2995 RMK A01 T01140035  RH  058%=      5-min Rain = 0
KES1 170325Z 13006KT 12/04 A2995 RMK A01 T01150035  RH  058%=      5-min Rain = 0
KES1 170326Z 13006KT 12/04 A2995 RMK A01 T01150035  RH  058%=      5-min Rain = 0
KES1 170327Z 13006KT 12/04 A2995 RMK A01 T01160035  RH  058%=      5-min Rain = 0
KES1 170328Z 13007KT 12/04 A2995 RMK A01 T01160035  RH  057%=      5-min Rain = 0
KES1 170329Z 13007KT 12/03 A2995 RMK A01 T01160034  RH  057%=      5-min Rain = 0
KES1 170330Z 13007KT 12/04 A2995 RMK A01 T01170035  RH  057%=      5-min Rain = 0
KES1 170331Z 13006KT 12/04 A2995 RMK A01 T01170035  RH  057%=      5-min Rain = 0
KES1 170332Z 13006KT 12/04 A2995 RMK A01 T01170035  RH  057%=      5-min Rain = 0
KES1 170333Z 13006KT 12/03 A2995 RMK A01 T01170034  RH  057%=      5-min Rain = 0
KES1 170334Z 13007KT 12/03 A2995 RMK A01 T01180034  RH  057%=      5-min Rain = 0
KES1 170335Z 14007KT 12/04 A2995 RMK A01 T01180035  RH  056%=      5-min Rain = 0
KES1 170336Z 14006KT 12/03 A2995 RMK A01 T01180034  RH  056%=      5-min Rain = 0
KES1 170337Z 14006KT 12/03 A2995 RMK A01 T01190034  RH  056%=      5-min Rain = 0
KES1 170338Z 14007KT 12/03 A2995 RMK A01 T01180034  RH  056%=      5-min Rain = 0
KES1 170339Z 14006KT 12/03 A2995 RMK A01 T01180034  RH  056%=      5-min Rain = 0
KES1 170340Z 14006KT 12/03 A2995 RMK A01 T01180034  RH  056%=      5-min Rain = 0
KES1 170341Z 14006KT 12/03 A2995 RMK A01 T01180034  RH  056%=      5-min Rain = 0
KES1 170342Z 13006KT 12/03 A2994 RMK A01 T01170033  RH  056%=      5-min Rain = 0
KES1 170343Z 14007KT 12/03 A2994 RMK A01 T01170034  RH  057%=      5-min Rain = 0
KES1 170344Z 14007KT 12/03 A2994 RMK A01 T01170034  RH  057%=      5-min Rain = 0
KES1 170345Z 14006KT 12/03 A2994 RMK A01 T01170033  RH  056%=      5-min Rain = 0
KES1 170346Z 14007KT 12/03 A2994 RMK A01 T01170033  RH  056%=      5-min Rain = 0
KES1 170347Z 14007KT 12/03 A2994 RMK A01 T01170033  RH  056%=      5-min Rain = 0
KES1 170348Z 14007KT 12/03 A2994 RMK A01 T01170033  RH  056%=      5-min Rain = 0
KES1 170349Z 14007KT 12/03 A2994 RMK A01 T01170033  RH  057%=      5-min Rain = 0
KES1 170350Z 14007KT 12/03 A2994 RMK A01 T01160033  RH  057%=      5-min Rain = 0
KES1 170351Z 14007KT 12/03 A2994 RMK A01 T01170033  RH  056%=      5-min Rain = 0
KES1 170352Z 14007KT 12/03 A2994 RMK A01 T01170033  RH  056%=      5-min Rain = 0
KES1 170353Z 14006KT 12/03 A2995 RMK A01 T01170033  RH  056%=      5-min Rain = 0
KES1 170354Z 15006KT 12/03 A2995 RMK A01 T01160033  RH  056%=      5-min Rain = 0
KES1 170355Z 15006KT 12/03 A2995 RMK A01 T01170033  RH  056%=      5-min Rain = 0
KES1 170356Z 15006KT 12/03 A2995 RMK A01 T01160033  RH  056%=      5-min Rain = 0
KES1 170357Z 15007KT 12/03 A2995 RMK A01 T01170033  RH  056%=      5-min Rain = 0
KES1 170358Z 14005KT 12/03 A2995 RMK A01 T01170033  RH  056%=      5-min Rain = 0
KES1 170359Z 15006KT 12/03 A2995 RMK A01 T01170033  RH  056%=      5-min Rain = 0
KES1 170400Z 15006KT 12/03 A2995 RMK A01 T01160033  RH  056%=      5-min Rain = 0
KES1 170401Z 14006KT 12/03 A2995 RMK A01 T01160033  RH  056%=      5-min Rain = 0
KES1 170402Z 15006KT 12/03 A2995 RMK A01 T01160033  RH  056%=      5-min Rain = 0
KES1 170403Z 15006KT 12/03 A2995 RMK A01 T01160032  RH  057%=      5-min Rain = 0
KES1 170404Z 15006KT 12/03 A2995 RMK A01 T01160032  RH  057%=      5-min Rain = 0
KES1 170405Z 15005KT 12/03 A2995 RMK A01 T01150032  RH  057%=      5-min Rain = 0
KES1 170406Z 15006KT 12/03 A2995 RMK A01 T01150032  RH  057%=      5-min Rain = 0
KES1 170407Z 15006KT 12/03 A2995 RMK A01 T01150032  RH  057%=      5-min Rain = 0
KES1 170408Z 15006KT 11/03 A2995 RMK A01 T01140032  RH  057%=      5-min Rain = 0
KES1 170409Z 15006KT 12/03 A2995 RMK A01 T01150032  RH  057%=      5-min Rain = 0
KES1 170410Z 15006KT 11/03 A2995 RMK A01 T01140032  RH  057%=      5-min Rain = 0
KES1 170411Z 15005KT 11/03 A2996 RMK A01 T01140032  RH  057%=      5-min Rain = 0
KES1 170412Z 15005KT 11/03 A2996 RMK A01 T01140032  RH  057%=      5-min Rain = 0
KES1 170413Z 15004KT 11/03 A2996 RMK A01 T01140032  RH  057%=      5-min Rain = 0
KES1 170414Z 14005KT 11/03 A2996 RMK A01 T01140032  RH  057%=      5-min Rain = 0
KES1 170415Z 14004KT 11/03 A2996 RMK A01 T01140032  RH  057%=      5-min Rain = 0
KES1 170416Z 14003KT 11/03 A2996 RMK A01 T01140032  RH  057%=      5-min Rain = 0
KES1 170417Z 15003KT 11/03 A2996 RMK A01 T01140032  RH  057%=      5-min Rain = 0
KES1 170418Z 14002KT 11/03 A2996 RMK A01 T01140032  RH  057%=      5-min Rain = 0
KES1 170419Z 13003KT 11/03 A2996 RMK A01 T01140032  RH  057%=      5-min Rain = 0
KES1 170420Z 14002KT 11/03 A2996 RMK A01 T01140032  RH  057%=      5-min Rain = 0
KES1 170421Z 13002KT 11/03 A2996 RMK A01 T01140032  RH  057%=      5-min Rain = 0
KES1 170422Z 13002KT 11/03 A2996 RMK A01 T01140031  RH  057%=      5-min Rain = 0
KES1 170423Z 13001KT 11/03 A2996 RMK A01 T01140031  RH  057%=      5-min Rain = 0
KES1 170424Z 00000KT 11/03 A2996 RMK A01 T01130031  RH  057%=      5-min Rain = 0
KES1 170425Z 00000KT 11/03 A2996 RMK A01 T01130031  RH  057%=      5-min Rain = 0
KES1 170426Z 07000KT 11/03 A2996 RMK A01 T01110029  RH  057%=      5-min Rain = 0
KES1 170427Z 01000KT 11/03 A2996 RMK A01 T01090028  RH  057%=      5-min Rain = 0
KES1 170428Z 05001KT 11/03 A2996 RMK A01 T01060027  RH  058%=      5-min Rain = 0
KES1 170429Z 05002KT 10/03 A2996 RMK A01 T01040028  RH  059%=      5-min Rain = 0
KES1 170430Z 05002KT 10/03 A2996 RMK A01 T01040029  RH  060%=      5-min Rain = 0
KES1 170431Z 06002KT 11/03 A2996 RMK A01 T01050029  RH  060%=      5-min Rain = 0
KES1 170432Z 07003KT 10/03 A2996 RMK A01 T01040029  RH  060%=      5-min Rain = 0
KES1 170433Z 07003KT 11/03 A2996 RMK A01 T01050029  RH  060%=      5-min Rain = 0
KES1 170434Z 06003KT 10/03 A2996 RMK A01 T01040029  RH  060%=      5-min Rain = 0
KES1 170435Z 07003KT 10/03 A2996 RMK A01 T01030029  RH  060%=      5-min Rain = 0
KES1 170436Z 07003KT 10/03 A2996 RMK A01 T01020029  RH  060%=      5-min Rain = 0
KES1 170437Z 08003KT 10/03 A2996 RMK A01 T01020028  RH  060%=      5-min Rain = 0
KES1 170438Z 09003KT 10/03 A2996 RMK A01 T01000028  RH  061%=      5-min Rain = 0
KES1 170439Z 10003KT 10/03 A2996 RMK A01 T00990028  RH  061%=      5-min Rain = 0
KES1 170440Z 10003KT 10/03 A2996 RMK A01 T00990028  RH  061%=      5-min Rain = 0
KES1 170441Z 10003KT 10/03 A2996 RMK A01 T00980028  RH  062%=      5-min Rain = 0
KES1 170442Z 10002KT 10/03 A2996 RMK A01 T00980028  RH  062%=      5-min Rain = 0
KES1 170443Z 10002KT 10/03 A2996 RMK A01 T00970028  RH  062%=      5-min Rain = 0
KES1 170444Z 10002KT 10/03 A2996 RMK A01 T00970029  RH  062%=      5-min Rain = 0
KES1 170445Z 10002KT 10/03 A2996 RMK A01 T00970029  RH  062%=      5-min Rain = 0
KES1 170446Z 10001KT 10/03 A2996 RMK A01 T00970029  RH  062%=      5-min Rain = 0
KES1 170447Z 11002KT 10/03 A2996 RMK A01 T00970029  RH  062%=      5-min Rain = 0
KES1 170448Z 12001KT 10/03 A2996 RMK A01 T00980029  RH  062%=      5-min Rain = 0
KES1 170449Z 13001KT 10/03 A2996 RMK A01 T00980029  RH  062%=      5-min Rain = 0
KES1 170450Z 13002KT 10/03 A2996 RMK A01 T00980029  RH  062%=      5-min Rain = 0
KES1 170451Z 13001KT 10/03 A2996 RMK A01 T00980029  RH  062%=      5-min Rain = 0
KES1 170452Z 14001KT 10/03 A2996 RMK A01 T00980029  RH  062%=      5-min Rain = 0
KES1 170453Z 14001KT 10/03 A2996 RMK A01 T00980029  RH  062%=      5-min Rain = 0
KES1 170454Z 14002KT 10/03 A2996 RMK A01 T00980029  RH  062%=      5-min Rain = 0
KES1 170455Z 13001KT 10/03 A2996 RMK A01 T00990030  RH  062%=      5-min Rain = 0
KES1 170456Z 12000KT 10/03 A2997 RMK A01 T00990030  RH  062%=      5-min Rain = 0
KES1 170457Z 00000KT 10/03 A2997 RMK A01 T00990029  RH  062%=      5-min Rain = 0
KES1 170458Z 00000KT 10/03 A2997 RMK A01 T00990030  RH  062%=      5-min Rain = 0
KES1 170459Z 00000KT 10/03 A2997 RMK A01 T01000029  RH  062%=      5-min Rain = 0
KES1 170500Z 14001KT 10/03 A2997 RMK A01 T01000030  RH  062%=      5-min Rain = 0
KES1 170501Z 16001KT 10/03 A2997 RMK A01 T01000030  RH  062%=      5-min Rain = 0
KES1 170502Z 14001KT 10/03 A2997 RMK A01 T01000030  RH  062%=      5-min Rain = 0
KES1 170503Z 14002KT 10/03 A2997 RMK A01 T01010031  RH  062%=      5-min Rain = 0
KES1 170504Z 13002KT 10/03 A2997 RMK A01 T01010029  RH  061%=      5-min Rain = 0
KES1 170505Z 12002KT 10/03 A2997 RMK A01 T01010029  RH  061%=      5-min Rain = 0
KES1 170506Z 13002KT 10/03 A2997 RMK A01 T01000028  RH  061%=      5-min Rain = 0
KES1 170507Z 13002KT 10/03 A2997 RMK A01 T00980027  RH  061%=      5-min Rain = 0
KES1 170508Z 13003KT 10/03 A2997 RMK A01 T00960026  RH  062%=      5-min Rain = 0
KES1 170509Z 13003KT 09/03 A2997 RMK A01 T00940026  RH  062%=      5-min Rain = 0
KES1 170510Z 13004KT 09/03 A2997 RMK A01 T00930026  RH  063%=      5-min Rain = 0
KES1 170511Z 13003KT 09/03 A2997 RMK A01 T00930027  RH  063%=      5-min Rain = 0
KES1 170512Z 13003KT 09/03 A2997 RMK A01 T00930027  RH  063%=      5-min Rain = 0
KES1 170513Z 13004KT 09/03 A2997 RMK A01 T00930027  RH  063%=      5-min Rain = 0
KES1 170514Z 13004KT 09/03 A2997 RMK A01 T00930027  RH  063%=      5-min Rain = 0
KES1 170515Z 13004KT 09/03 A2997 RMK A01 T00940029  RH  064%=      5-min Rain = 0
KES1 170516Z 13004KT 10/03 A2997 RMK A01 T00950029  RH  063%=      5-min Rain = 0
KES1 170517Z 13004KT 10/03 A2997 RMK A01 T00960029  RH  063%=      5-min Rain = 0
KES1 170518Z 13004KT 10/03 A2997 RMK A01 T00960028  RH  063%=      5-min Rain = 0
KES1 170519Z 13004KT 10/03 A2997 RMK A01 T00960028  RH  063%=      5-min Rain = 0
KES1 170520Z 13004KT 10/03 A2997 RMK A01 T00960028  RH  063%=      5-min Rain = 0
KES1 170521Z 13004KT 10/03 A2997 RMK A01 T00950027  RH  063%=      5-min Rain = 0
KES1 170522Z 13004KT 10/03 A2997 RMK A01 T00950028  RH  063%=      5-min Rain = 0
KES1 170523Z 14004KT 09/03 A2996 RMK A01 T00940028  RH  063%=      5-min Rain = 0
KES1 170524Z 14004KT 09/03 A2996 RMK A01 T00940028  RH  063%=      5-min Rain = 0
KES1 170525Z 14004KT 10/03 A2996 RMK A01 T00950029  RH  063%=      5-min Rain = 0
KES1 170526Z 14004KT 10/03 A2996 RMK A01 T00960029  RH  063%=      5-min Rain = 0
KES1 170527Z 15004KT 10/03 A2996 RMK A01 T00960029  RH  063%=      5-min Rain = 0
KES1 170528Z 14004KT 10/03 A2996 RMK A01 T00960028  RH  063%=      5-min Rain = 0
KES1 170529Z 15005KT 10/03 A2996 RMK A01 T00960028  RH  063%=      5-min Rain = 0
KES1 170530Z 14005KT 10/03 A2996 RMK A01 T00960028  RH  062%=      5-min Rain = 0
KES1 170531Z 14006KT 10/03 A2996 RMK A01 T00960028  RH  062%=      5-min Rain = 0
KES1 170532Z 15006KT 10/03 A2996 RMK A01 T00950027  RH  062%=      5-min Rain = 0
KES1 170533Z 14006KT 09/03 A2996 RMK A01 T00940027  RH  063%=      5-min Rain = 0
KES1 170534Z 14006KT 09/03 A2996 RMK A01 T00930027  RH  064%=      5-min Rain = 0
KES1 170535Z 14006KT 09/03 A2996 RMK A01 T00930028  RH  064%=      5-min Rain = 0
KES1 170536Z 14007KT 09/03 A2996 RMK A01 T00930028  RH  064%=      5-min Rain = 0
KES1 170537Z 14006KT 09/03 A2996 RMK A01 T00940029  RH  064%=      5-min Rain = 0
KES1 170538Z 14006KT 10/03 A2996 RMK A01 T00950029  RH  063%=      5-min Rain = 0
KES1 170539Z 14005KT 10/03 A2996 RMK A01 T00970030  RH  063%=      5-min Rain = 0
KES1 170540Z 14005KT 10/03 A2996 RMK A01 T00970030  RH  063%=      5-min Rain = 0
KES1 170541Z 14005KT 10/03 A2996 RMK A01 T00990031  RH  063%=      5-min Rain = 0
KES1 170542Z 14004KT 10/03 A2996 RMK A01 T01000031  RH  062%=      5-min Rain = 0
KES1 170543Z 14004KT 10/03 A2996 RMK A01 T01000031  RH  062%=      5-min Rain = 0
KES1 170544Z 13003KT 10/03 A2996 RMK A01 T01010031  RH  062%=      5-min Rain = 0
KES1 170545Z 12002KT 10/03 A2997 RMK A01 T01010031  RH  062%=      5-min Rain = 0
KES1 170546Z 12003KT 10/03 A2997 RMK A01 T01010031  RH  062%=      5-min Rain = 0
KES1 170547Z 08002KT 10/03 A2997 RMK A01 T01010030  RH  062%=      5-min Rain = 0
KES1 170548Z 08002KT 10/03 A2997 RMK A01 T01000029  RH  061%=      5-min Rain = 0
KES1 170549Z 08002KT 10/03 A2997 RMK A01 T00980029  RH  062%=      5-min Rain = 0
KES1 170550Z 07002KT 10/03 A2997 RMK A01 T00970028  RH  062%=      5-min Rain = 0
KES1 170551Z 05002KT 10/03 A2997 RMK A01 T00960027  RH  062%=      5-min Rain = 0
KES1 170552Z 07002KT 09/03 A2997 RMK A01 T00940026  RH  062%=      5-min Rain = 0
KES1 170553Z 05001KT 09/03 A2997 RMK A01 T00920025  RH  063%=      5-min Rain = 0
KES1 170554Z 07002KT 09/03 A2997 RMK A01 T00910025  RH  063%=      5-min Rain = 0
KES1 170555Z 07002KT 09/03 A2997 RMK A01 T00900026  RH  064%=      5-min Rain = 0
KES1 170556Z 08002KT 09/03 A2997 RMK A01 T00900026  RH  064%=      5-min Rain = 0
KES1 170557Z 08002KT 09/03 A2997 RMK A01 T00890025  RH  064%=      5-min Rain = 0
KES1 170558Z 07002KT 09/03 A2996 RMK A01 T00880025  RH  065%=      5-min Rain = 0
KES1 170559Z 07002KT 09/03 A2996 RMK A01 T00880025  RH  065%=      5-min Rain = 0

Page generated in 0.0718 seconds.